GFSFLT1_500_temp_000.txt.gz
Temp
-14 -15 -15 -15 -15 -15 -15 -15 -15 -15 -16 -16 -16 -16 -16 -15 -15 -15 -15 -16 -16 -16 -16 -16 -16 -16 -16 -17 -16 -16 -17 -17
-15 -15 -15 -15 -15 -15 -15 -15 -15 -15 -16 -16 -16 -16 -16 -16 -15 -15 -15 -15 -15 -16 -16 -16 -16 -16 -16 -17 -17 -17 -16 -17
-15 -15 -15 -15 -15 -15 -14 -14 -15 -15 -15 -15 -15 -15 -15 -15 -15 -15 -16 -16 -16 -16 -16 -16 -16 -16 -16 -16 -16 -16 -17 -17
-15 -15 -15 -15 -15 -15 -15 -15 -15 -15 -16 -16 -16 -16 -16 -16 -16 -17 -16 -17 -17 -17 -17 -17 -17 -17 -17 -16 -16 -16 -17 -17
-15 -15 -15 -15 -15 -15 -15 -15 -15 -16 -16 -17 -17 -17 -17 -18 -18 -17 -18 -18 -17 -17 -18 -18 -17 -17 -17 -18 -18 -17 -17 -17
-15 -15 -15 -15 -15 -15 -15 -15 -15 -15 -16 -16 -17 -17 -18 -18 -18 -18 -18 -19 -18 -18 -18 -19 -19 -19 -19 -19 -20 -19 -19 -19
-14 -15 -15 -15 -15 -15 -15 -15 -15 -16 -16 -17 -17 -18 -18 -19 -19 -19 -19 -19 -19 -19 -19 -19 -20 -20 -20 -20 -20 -20 -20 -20
-14 -14 -15 -15 -15 -15 -16 -16 -16 -16 -16 -17 -17 -18 -19 -19 -19 -19 -19 -19 -19 -20 -20 -20 -20 -20 -20 -20 -19 -19 -20 -21
-15 -15 -15 -15 -15 -15 -16 -16 -16 -17 -17 -17 -18 -18 -19 -19 -19 -20 -20 -21 -21 -21 -21 -21 -21 -20 -20 -20 -20 -20 -20 -20
-15 -15 -15 -15 -16 -16 -16 -16 -17 -18 -18 -18 -19 -19 -20 -20 -20 -20 -21 -21 -21 -21 -22 -22 -21 -21 -21 -21 -21 -21 -20 -20
-15 -15 -15 -16 -16 -16 -17 -17 -18 -18 -19 -19 -20 -20 -20 -21 -21 -22 -22 -21 -22 -22 -22 -22 -22 -22 -22 -21 -21 -21 -21 -21
-15 -15 -16 -16 -16 -17 -17 -18 -18 -19 -19 -20 -20 -21 -22 -22 -23 -23 -22 -22 -22 -22 -22 -23 -22 -22 -22 -22 -22 -23 -23 -23
-15 -15 -16 -16 -17 -17 -18 -18 -19 -20 -20 -21 -22 -22 -23 -23 -24 -23 -23 -23 -23 -23 -23 -23 -23 -23 -24 -24 -25 -25 -25 -25
-16 -16 -16 -17 -17 -18 -18 -19 -20 -20 -21 -22 -23 -23 -24 -24 -24 -24 -23 -23 -23 -23 -23 -24 -25 -25 -26 -25 -26 -26 -27 -28
-17 -17 -17 -17 -17 -18 -19 -20 -20 -21 -22 -23 -24 -24 -24 -24 -24 -24 -24 -24 -24 -25 -26 -26 -26 -26 -26 -27 -28 -29 -30 -30
-17 -17 -17 -17 -18 -19 -20 -20 -21 -22 -23 -24 -24 -24 -24 -24 -24 -24 -24 -24 -25 -26 -26 -26 -27 -28 -29 -30 -30 -30 -30 -30
-17 -18 -18 -18 -19 -20 -21 -21 -22 -22 -23 -24 -24 -25 -24 -24 -25 -24 -24 -26 -26 -27 -27 -28 -29 -30 -31 -30 -30 -30 -29 -29
-18 -18 -18 -19 -20 -21 -22 -22 -22 -23 -24 -24 -25 -24 -25 -25 -24 -25 -26 -26 -27 -28 -29 -31 -31 -30 -30 -30 -29 -29 -29 -29
-18 -18 -20 -21 -21 -22 -22 -22 -23 -24 -24 -25 -25 -25 -25 -25 -25 -26 -27 -27 -28 -30 -31 -31 -30 -30 -29 -29 -29 -29 -28 -28

GFSFLT1_500_temp_003.txt.gz
Temp
-14 -14 -14 -14 -14 -14 -14 -14 -14 -14 -14 -15 -15 -15 -15 -15 -15 -15 -15 -15 -15 -15 -15 -16 -16 -16 -16 -17 -17 -17 -17 -16
-14 -14 -14 -14 -14 -14 -13 -14 -14 -14 -14 -14 -14 -15 -15 -15 -15 -15 -15 -16 -16 -16 -16 -16 -16 -16 -16 -17 -17 -17 -17 -17
-14 -14 -14 -14 -14 -14 -14 -14 -14 -14 -14 -14 -14 -14 -15 -15 -15 -15 -15 -16 -16 -17 -17 -17 -16 -16 -16 -16 -16 -17 -17 -17
-13 -13 -13 -14 -14 -14 -14 -14 -14 -14 -15 -14 -15 -15 -15 -15 -15 -16 -16 -16 -17 -17 -18 -18 -18 -17 -17 -17 -17 -17 -17 -17
-14 -14 -14 -14 -14 -14 -14 -14 -14 -14 -15 -16 -16 -16 -17 -17 -17 -17 -17 -17 -16 -17 -17 -17 -18 -18 -18 -18 -18 -18 -18 -18
-14 -14 -14 -14 -14 -14 -15 -15 -15 -15 -15 -16 -16 -17 -17 -18 -18 -18 -18 -18 -18 -18 -19 -19 -18 -19 -19 -19 -19 -19 -20 -19
-14 -14 -14 -15 -14 -15 -15 -15 -15 -16 -16 -16 -17 -17 -17 -18 -18 -18 -19 -19 -20 -20 -20 -20 -20 -20 -20 -20 -20 -20 -21 -21
-14 -14 -14 -14 -14 -15 -15 -15 -16 -16 -16 -16 -17 -17 -18 -18 -19 -19 -20 -20 -20 -21 -21 -21 -21 -21 -21 -21 -21 -21 -21 -21
-14 -14 -14 -15 -15 -15 -16 -16 -16 -16 -16 -16 -17 -18 -18 -19 -19 -20 -20 -21 -21 -22 -22 -22 -22 -22 -22 -22 -22 -22 -22 -21
-14 -14 -14 -15 -15 -15 -16 -16 -16 -17 -17 -17 -18 -18 -19 -20 -20 -21 -22 -22 -22 -23 -23 -23 -23 -23 -23 -23 -23 -23 -22 -22
-14 -14 -15 -15 -16 -17 -16 -17 -17 -18 -18 -18 -19 -19 -20 -21 -21 -22 -23 -23 -24 -24 -24 -23 -23 -23 -23 -23 -23 -23 -23 -22
-15 -15 -16 -16 -16 -17 -17 -18 -18 -18 -19 -19 -20 -20 -21 -21 -22 -23 -24 -24 -24 -24 -24 -24 -23 -23 -23 -23 -23 -22 -22 -22
-16 -16 -16 -17 -17 -17 -18 -18 -18 -19 -20 -20 -21 -21 -21 -22 -23 -24 -24 -24 -24 -24 -24 -24 -24 -24 -23 -23 -23 -23 -24 -25
-16 -17 -17 -17 -18 -17 -18 -18 -19 -19 -20 -21 -21 -22 -22 -23 -24 -24 -24 -24 -24 -24 -24 -24 -23 -23 -24 -25 -25 -25 -26 -26
-17 -17 -18 -18 -18 -18 -18 -18 -19 -20 -21 -21 -22 -22 -23 -24 -25 -24 -24 -24 -24 -24 -24 -24 -25 -25 -26 -26 -26 -26 -26 -27
-17 -18 -17 -18 -18 -19 -18 -19 -20 -21 -21 -22 -22 -23 -24 -25 -24 -25 -25 -24 -24 -24 -25 -26 -26 -27 -27 -27 -28 -28 -29 -29
-18 -18 -18 -18 -19 -19 -20 -20 -21 -22 -22 -23 -23 -24 -24 -25 -25 -25 -25 -25 -25 -26 -27 -27 -27 -28 -29 -30 -30 -30 -30 -30
-18 -18 -18 -18 -18 -19 -20 -21 -22 -22 -23 -24 -24 -25 -25 -25 -25 -25 -25 -26 -26 -27 -28 -28 -29 -30 -30 -31 -30 -30 -30 -29
-18 -18 -18 -18 -19 -20 -21 -22 -23 -23 -24 -25 -25 -25 -25 -25 -25 -26 -26 -27 -27 -28 -29 -30 -30 -31 -31 -30 -30 -29 -29 -29

GFSFLT1_500_temp_006.txt.gz
Temp
-12 -13 -13 -13 -13 -13 -13 -13 -13 -14 -14 -14 -14 -14 -14 -14 -14 -14 -15 -15 -15 -15 -16 -16 -16 -16 -16 -16 -16 -16 -17 -17
-13 -12 -13 -13 -13 -13 -13 -13 -13 -13 -13 -13 -14 -14 -14 -14 -14 -14 -14 -14 -14 -15 -15 -15 -16 -17 -17 -17 -17 -17 -17 -17
-13 -13 -13 -13 -13 -13 -13 -14 -14 -14 -14 -14 -14 -14 -14 -14 -15 -15 -15 -15 -15 -16 -16 -16 -17 -17 -17 -17 -17 -17 -17 -17
-13 -13 -13 -13 -14 -14 -14 -14 -14 -14 -14 -15 -15 -15 -15 -15 -15 -15 -15 -15 -16 -17 -17 -18 -18 -18 -18 -18 -18 -18 -18 -18
-14 -14 -14 -14 -14 -14 -15 -15 -15 -15 -15 -15 -16 -16 -16 -16 -17 -17 -17 -16 -17 -17 -17 -18 -18 -18 -19 -19 -19 -19 -18 -18
-14 -14 -14 -14 -14 -15 -15 -15 -15 -15 -16 -16 -16 -17 -17 -17 -17 -17 -18 -18 -18 -19 -19 -19 -19 -20 -20 -20 -21 -21 -20 -19
-14 -15 -14 -15 -14 -14 -15 -15 -16 -16 -16 -16 -16 -16 -17 -17 -17 -18 -19 -19 -20 -20 -20 -21 -21 -22 -22 -22 -22 -22 -22 -22
-13 -13 -13 -14 -14 -15 -15 -15 -15 -16 -16 -17 -17 -17 -17 -18 -18 -18 -19 -20 -20 -21 -21 -21 -23 -23 -23 -23 -23 -23 -23 -22
-13 -14 -14 -14 -14 -15 -16 -16 -16 -16 -16 -16 -17 -17 -18 -18 -19 -19 -20 -21 -21 -22 -22 -23 -24 -24 -24 -24 -24 -24 -24 -23
-14 -14 -14 -14 -15 -15 -16 -16 -17 -17 -18 -18 -18 -18 -19 -19 -20 -20 -21 -21 -22 -23 -24 -24 -24 -24 -24 -24 -24 -24 -24 -24
-15 -15 -15 -15 -16 -16 -16 -17 -17 -18 -18 -19 -19 -19 -20 -20 -21 -21 -21 -22 -23 -24 -24 -24 -24 -24 -25 -24 -24 -24 -24 -24
-15 -16 -16 -16 -17 -17 -17 -17 -18 -18 -19 -19 -20 -20 -21 -21 -22 -22 -23 -23 -24 -24 -25 -25 -25 -25 -25 -24 -24 -24 -24 -24
-16 -17 -17 -17 -17 -17 -18 -17 -18 -18 -18 -20 -20 -21 -21 -21 -22 -23 -23 -24 -24 -25 -25 -25 -25 -25 -24 -24 -24 -24 -24 -24
-17 -17 -17 -17 -18 -18 -18 -18 -18 -18 -19 -19 -20 -21 -21 -22 -22 -23 -24 -25 -25 -25 -25 -25 -25 -25 -25 -25 -24 -24 -25 -25
-17 -18 -17 -18 -18 -18 -19 -19 -19 -19 -19 -19 -20 -21 -22 -23 -23 -24 -25 -25 -25 -25 -25 -25 -25 -25 -25 -25 -26 -26 -26 -26
-18 -18 -19 -19 -18 -19 -20 -20 -19 -19 -20 -21 -21 -22 -23 -24 -25 -25 -25 -25 -25 -25 -26 -26 -26 -26 -26 -27 -27 -27 -28 -28
-18 -19 -19 -19 -20 -20 -20 -20 -20 -20 -20 -21 -23 -23 -24 -25 -25 -25 -25 -26 -26 -26 -26 -26 -27 -27 -28 -28 -29 -29 -30 -30
-18 -18 -19 -19 -20 -20 -20 -20 -20 -21 -22 -23 -24 -24 -25 -26 -26 -26 -26 -26 -26 -26 -27 -27 -28 -28 -29 -30 -31 -30 -31 -30
-19 -19 -19 -20 -21 -21 -21 -21 -21 -22 -23 -24 -25 -25 -26 -26 -26 -26 -26 -26 -27 -27 -28 -28 -29 -30 -31 -31 -31 -30 -30 -29

GFSFLT1_500_temp_009.txt.gz
Temp
-12 -12 -13 -13 -13 -13 -13 -13 -13 -14 -14 -14 -14 -14 -14 -14 -14 -14 -15 -15 -15 -15 -15 -15 -15 -15 -15 -16 -16 -16 -17 -17
-13 -13 -13 -13 -13 -13 -14 -14 -14 -14 -14 -14 -14 -14 -14 -14 -14 -14 -14 -15 -16 -16 -16 -15 -16 -16 -16 -17 -17 -17 -17 -17
-14 -14 -14 -14 -14 -14 -14 -14 -14 -15 -15 -15 -15 -15 -15 -15 -15 -15 -15 -15 -15 -15 -16 -16 -16 -16 -17 -17 -18 -18 -18 -18
-14 -14 -14 -14 -14 -15 -15 -14 -15 -15 -15 -15 -15 -15 -15 -16 -15 -15 -16 -15 -16 -15 -15 -16 -16 -17 -18 -18 -19 -19 -19 -19
-13 -14 -14 -14 -14 -15 -15 -15 -15 -15 -15 -15 -15 -16 -16 -16 -17 -17 -17 -17 -17 -17 -17 -17 -17 -18 -18 -19 -19 -20 -20 -20
-14 -14 -14 -14 -15 -16 -16 -16 -16 -16 -16 -16 -16 -16 -17 -17 -18 -18 -18 -17 -17 -17 -17 -17 -18 -18 -19 -20 -20 -21 -22 -22
-14 -14 -14 -14 -14 -15 -15 -15 -16 -16 -16 -17 -17 -17 -17 -17 -18 -18 -18 -18 -19 -19 -19 -19 -20 -21 -21 -22 -22 -23 -23 -23
-15 -14 -14 -14 -14 -15 -15 -15 -15 -16 -16 -16 -16 -17 -17 -17 -18 -18 -19 -20 -20 -21 -21 -22 -22 -22 -23 -23 -24 -24 -24 -24
-15 -14 -15 -15 -15 -16 -16 -17 -16 -17 -18 -17 -17 -17 -18 -18 -18 -18 -19 -20 -21 -21 -22 -23 -23 -24 -24 -24 -24 -24 -24 -24
-15 -15 -16 -16 -16 -16 -17 -17 -16 -17 -18 -18 -18 -19 -19 -19 -19 -19 -20 -20 -21 -22 -23 -24 -24 -24 -24 -24 -25 -25 -25 -25
-16 -17 -17 -17 -17 -17 -17 -17 -17 -18 -18 -18 -19 -19 -20 -20 -20 -20 -21 -21 -22 -23 -24 -24 -24 -25 -25 -25 -25 -25 -25 -25
-17 -17 -17 -17 -17 -17 -17 -18 -18 -18 -18 -19 -19 -20 -20 -20 -21 -21 -21 -23 -23 -24 -24 -25 -25 -26 -26 -26 -26 -26 -25 -25
-17 -18 -18 -17 -18 -18 -18 -18 -19 -18 -19 -19 -20 -20 -20 -21 -21 -22 -23 -24 -24 -25 -25 -25 -26 -26 -26 -26 -26 -25 -25 -25
-18 -18 -18 -18 -18 -18 -18 -19 -19 -19 -19 -20 -20 -20 -20 -21 -21 -22 -23 -24 -25 -25 -26 -26 -26 -26 -26 -26 -25 -25 -25 -25
-18 -18 -18 -18 -19 -19 -19 -19 -20 -21 -20 -20 -20 -20 -21 -22 -23 -24 -24 -25 -26 -26 -26 -26 -26 -26 -26 -26 -26 -26 -26 -26
-18 -18 -19 -19 -18 -19 -20 -21 -21 -21 -21 -21 -21 -21 -22 -22 -23 -24 -25 -25 -26 -26 -26 -26 -27 -26 -26 -27 -27 -27 -27 -27
-19 -19 -19 -19 -19 -20 -20 -21 -21 -21 -21 -22 -22 -23 -23 -24 -25 -25 -26 -27 -27 -27 -27 -27 -27 -27 -27 -28 -27 -27 -28 -29
-20 -20 -19 -19 -19 -19 -20 -21 -21 -22 -22 -23 -23 -24 -25 -26 -27 -27 -27 -27 -27 -27 -27 -27 -28 -28 -28 -28 -29 -30 -30 -31
-20 -20 -20 -20 -20 -21 -22 -22 -22 -22 -23 -23 -24 -25 -26 -27 -27 -27 -27 -27 -27 -27 -28 -28 -28 -28 -28 -29 -30 -30 -30 -30

GFSFLT1_500_temp_012.txt.gz
Temp
-13 -13 -13 -13 -13 -13 -14 -14 -14 -14 -14 -14 -14 -14 -14 -14 -14 -15 -15 -15 -15 -15 -15 -15 -15 -16 -16 -16 -16 -16 -16 -16
-13 -14 -14 -14 -14 -14 -14 -14 -15 -15 -15 -15 -15 -15 -15 -15 -15 -14 -15 -15 -16 -16 -16 -16 -16 -16 -16 -17 -17 -17 -17 -17
-14 -14 -14 -14 -15 -15 -15 -16 -16 -16 -16 -15 -15 -15 -15 -15 -15 -15 -15 -16 -16 -16 -17 -16 -16 -17 -17 -17 -17 -17 -18 -18
-14 -14 -14 -15 -15 -15 -16 -16 -16 -16 -16 -15 -16 -16 -16 -16 -16 -16 -16 -16 -16 -16 -16 -17 -16 -16 -16 -17 -17 -17 -18 -18
-14 -14 -14 -14 -15 -15 -15 -16 -16 -16 -15 -15 -15 -15 -16 -16 -16 -16 -17 -17 -17 -17 -16 -16 -16 -17 -17 -17 -17 -18 -19 -20
-14 -14 -14 -15 -15 -15 -15 -16 -16 -15 -15 -15 -16 -16 -16 -16 -17 -17 -17 -17 -17 -18 -18 -18 -18 -18 -18 -18 -18 -18 -19 -20
-15 -15 -15 -15 -16 -16 -16 -16 -16 -16 -16 -16 -17 -17 -17 -17 -18 -18 -18 -18 -18 -19 -19 -19 -19 -19 -19 -19 -19 -20 -20 -21
-15 -16 -16 -16 -16 -16 -17 -17 -16 -17 -17 -17 -18 -18 -18 -18 -18 -19 -19 -18 -18 -19 -19 -20 -20 -20 -21 -22 -22 -23 -23 -23
-16 -16 -16 -17 -17 -17 -16 -17 -17 -18 -18 -18 -18 -19 -19 -19 -19 -19 -19 -19 -19 -19 -20 -20 -21 -22 -24 -24 -24 -24 -24 -24
-16 -17 -17 -17 -17 -17 -17 -18 -18 -18 -18 -18 -18 -19 -19 -20 -20 -20 -20 -20 -20 -21 -21 -22 -23 -24 -25 -25 -24 -25 -26 -26
-17 -17 -17 -17 -18 -18 -18 -18 -18 -18 -18 -18 -18 -18 -19 -20 -20 -20 -20 -21 -21 -21 -22 -23 -24 -25 -25 -25 -26 -26 -26 -26
-18 -17 -18 -18 -18 -18 -18 -18 -18 -18 -18 -18 -18 -18 -19 -19 -20 -21 -21 -21 -21 -22 -23 -24 -25 -25 -26 -26 -26 -26 -26 -26
-17 -18 -18 -19 -19 -19 -19 -19 -19 -19 -19 -19 -19 -19 -19 -21 -21 -21 -21 -21 -22 -23 -24 -25 -26 -26 -26 -26 -26 -26 -26 -26
-18 -19 -19 -19 -19 -19 -19 -19 -19 -19 -19 -20 -20 -21 -21 -21 -21 -22 -22 -23 -24 -25 -26 -26 -26 -27 -27 -27 -27 -26 -26 -26
-18 -19 -19 -19 -20 -20 -20 -20 -20 -20 -20 -21 -22 -22 -22 -22 -22 -22 -23 -24 -25 -26 -27 -27 -27 -26 -26 -26 -26 -26 -26 -26
-19 -19 -20 -20 -20 -20 -20 -21 -20 -21 -22 -22 -22 -22 -22 -23 -22 -23 -25 -26 -26 -26 -26 -26 -27 -27 -27 -27 -26 -27 -27 -27
-20 -20 -20 -20 -21 -21 -21 -21 -21 -22 -22 -23 -23 -23 -23 -24 -24 -26 -27 -27 -27 -28 -28 -28 -27 -28 -27 -27 -27 -27 -27 -28
-20 -20 -20 -20 -21 -21 -22 -22 -22 -23 -23 -23 -23 -24 -25 -26 -27 -28 -28 -28 -28 -28 -28 -28 -28 -28 -28 -27 -28 -27 -28 -29
-20 -20 -21 -21 -21 -22 -22 -23 -24 -24 -24 -24 -24 -25 -26 -27 -28 -28 -28 -28 -28 -28 -28 -28 -28 -28 -28 -28 -28 -29 -30 -30

GFSFLT1_500_temp_015.txt.gz
Temp
-14 -13 -14 -14 -14 -14 -14 -15 -15 -15 -15 -15 -15 -15 -15 -15 -15 -15 -15 -15 -15 -15 -15 -15 -15 -15 -16 -16 -16 -16 -17 -17
-14 -13 -13 -14 -15 -15 -15 -15 -15 -16 -16 -16 -16 -16 -16 -15 -15 -15 -16 -16 -16 -16 -16 -16 -16 -16 -16 -16 -16 -17 -17 -17
-14 -14 -14 -14 -15 -15 -15 -16 -16 -16 -16 -16 -16 -16 -16 -16 -16 -15 -15 -15 -16 -16 -17 -17 -17 -17 -17 -17 -18 -18 -18 -18
-14 -14 -15 -15 -16 -15 -16 -16 -16 -15 -15 -15 -15 -16 -16 -16 -16 -16 -16 -16 -16 -16 -17 -17 -17 -17 -17 -17 -17 -17 -18 -18
-14 -15 -15 -15 -15 -15 -16 -16 -16 -16 -16 -15 -15 -15 -15 -15 -15 -16 -16 -17 -17 -17 -17 -17 -17 -17 -17 -17 -17 -17 -18 -18
-14 -14 -14 -15 -15 -16 -17 -17 -16 -16 -16 -16 -17 -16 -17 -16 -17 -17 -17 -17 -17 -17 -18 -18 -18 -18 -18 -18 -18 -18 -19 -19
-15 -15 -16 -16 -16 -16 -16 -16 -16 -17 -17 -17 -17 -18 -17 -18 -18 -17 -18 -18 -18 -18 -19 -19 -20 -20 -20 -20 -20 -20 -20 -20
-14 -15 -15 -15 -16 -16 -16 -17 -17 -17 -17 -18 -18 -18 -18 -18 -18 -18 -18 -18 -19 -19 -20 -20 -20 -21 -21 -21 -21 -21 -22 -22
-15 -15 -15 -16 -16 -16 -17 -17 -17 -17 -18 -18 -18 -18 -18 -19 -19 -19 -19 -19 -19 -19 -20 -21 -21 -21 -21 -22 -23 -22 -24 -25
-16 -16 -16 -16 -17 -17 -17 -17 -18 -18 -18 -18 -19 -19 -19 -19 -19 -19 -20 -20 -20 -20 -21 -21 -22 -22 -22 -23 -24 -24 -25 -25
-16 -17 -17 -18 -18 -17 -18 -18 -18 -18 -18 -19 -20 -20 -20 -20 -20 -20 -20 -20 -21 -21 -21 -22 -22 -22 -23 -25 -25 -25 -25 -25
-17 -17 -18 -18 -18 -18 -18 -18 -19 -19 -19 -20 -20 -20 -20 -21 -21 -22 -22 -22 -22 -22 -22 -22 -22 -23 -24 -26 -26 -26 -27 -27
-17 -18 -18 -18 -18 -18 -18 -19 -20 -20 -20 -21 -21 -22 -22 -22 -22 -22 -23 -23 -23 -23 -23 -23 -24 -25 -26 -27 -27 -27 -27 -27
-17 -17 -18 -18 -18 -19 -20 -20 -20 -21 -21 -21 -22 -22 -23 -23 -24 -24 -24 -24 -24 -24 -24 -25 -26 -27 -27 -27 -27 -27 -27 -27
-18 -18 -19 -19 -20 -20 -20 -21 -21 -21 -21 -22 -22 -23 -23 -24 -24 -24 -25 -25 -25 -26 -26 -27 -28 -28 -28 -28 -27 -27 -27 -27
-19 -19 -19 -20 -20 -20 -21 -21 -21 -21 -22 -23 -23 -23 -24 -25 -25 -25 -26 -26 -27 -28 -28 -28 -28 -28 -28 -28 -28 -27 -27 -27
-19 -20 -20 -20 -21 -21 -21 -21 -21 -22 -23 -24 -24 -24 -25 -26 -26 -27 -28 -28 -29 -29 -29 -29 -29 -29 -28 -28 -28 -28 -28 -28
-20 -20 -21 -20 -20 -21 -22 -23 -24 -24 -24 -25 -25 -26 -26 -26 -27 -29 -29 -29 -29 -29 -29 -29 -29 -29 -29 -28 -28 -28 -28 -28
-21 -21 -20 -21 -22 -23 -23 -23 -24 -25 -25 -26 -26 -27 -27 -29 -29 -29 -29 -29 -29 -29 -29 -29 -29 -29 -29 -28 -28 -28 -28 -29

GFSFLT1_500_temp_018.txt.gz
Temp
-13 -13 -13 -13 -14 -14 -15 -15 -15 -15 -15 -15 -15 -15 -15 -15 -16 -16 -16 -16 -16 -15 -15 -15 -15 -15 -15 -16 -16 -16 -16 -16
-13 -13 -13 -14 -14 -15 -15 -15 -15 -15 -15 -15 -15 -16 -16 -16 -16 -16 -16 -16 -16 -16 -16 -16 -16 -16 -16 -16 -17 -17 -17 -17
-14 -14 -14 -15 -15 -16 -16 -16 -16 -16 -16 -16 -15 -15 -15 -16 -16 -16 -16 -16 -16 -16 -16 -16 -17 -17 -17 -17 -17 -18 -18 -19
-13 -14 -15 -15 -16 -16 -16 -16 -16 -16 -15 -15 -15 -15 -15 -16 -16 -16 -17 -17 -16 -16 -16 -16 -17 -17 -17 -18 -18 -18 -18 -19
-14 -15 -15 -15 -15 -15 -16 -15 -15 -15 -16 -17 -16 -16 -16 -17 -17 -17 -17 -18 -18 -18 -18 -18 -18 -18 -18 -18 -18 -18 -19 -19
-14 -14 -15 -15 -15 -15 -15 -16 -16 -17 -17 -17 -17 -17 -17 -17 -18 -18 -18 -18 -19 -19 -19 -19 -19 -19 -19 -19 -19 -19 -19 -19
-14 -15 -16 -16 -16 -16 -16 -16 -16 -17 -17 -17 -17 -17 -18 -18 -18 -18 -18 -19 -19 -19 -20 -20 -20 -20 -20 -20 -20 -21 -21 -21
-15 -15 -15 -15 -15 -15 -15 -15 -16 -16 -17 -17 -17 -17 -18 -18 -19 -19 -19 -19 -19 -19 -20 -20 -20 -21 -21 -21 -21 -21 -22 -22
-15 -15 -15 -15 -15 -15 -16 -16 -16 -17 -17 -18 -18 -18 -19 -19 -20 -20 -20 -20 -20 -21 -21 -21 -21 -21 -22 -22 -22 -22 -22 -22
-15 -15 -15 -16 -16 -16 -15 -16 -17 -17 -18 -18 -19 -19 -20 -20 -21 -21 -21 -21 -22 -22 -22 -22 -22 -22 -23 -23 -23 -23 -23 -24
-15 -16 -16 -16 -16 -17 -17 -17 -18 -19 -19 -19 -19 -19 -20 -21 -21 -22 -22 -23 -23 -23 -23 -23 -23 -23 -24 -24 -24 -24 -24 -24
-16 -17 -17 -17 -18 -18 -18 -19 -19 -19 -20 -20 -20 -21 -21 -22 -22 -22 -23 -23 -23 -24 -24 -24 -25 -25 -25 -25 -25 -25 -25 -27
-18 -18 -18 -17 -18 -18 -19 -19 -19 -20 -20 -20 -21 -22 -22 -22 -22 -23 -24 -23 -23 -24 -24 -25 -26 -26 -26 -27 -27 -28 -28 -28
-17 -17 -17 -18 -18 -19 -19 -20 -20 -21 -21 -21 -21 -22 -23 -23 -23 -24 -24 -24 -25 -25 -26 -27 -28 -28 -28 -28 -28 -28 -28 -28
-16 -17 -18 -18 -19 -19 -20 -20 -21 -21 -21 -21 -22 -23 -23 -24 -24 -24 -24 -25 -26 -27 -28 -29 -29 -29 -29 -29 -29 -28 -28 -28
-18 -18 -18 -19 -20 -20 -21 -21 -21 -21 -22 -24 -24 -24 -24 -24 -24 -25 -26 -27 -29 -30 -30 -30 -30 -30 -29 -29 -29 -29 -29 -28
-18 -19 -20 -21 -21 -21 -21 -21 -22 -23 -24 -24 -24 -25 -25 -25 -26 -27 -29 -30 -30 -30 -30 -30 -30 -29 -29 -29 -29 -29 -29 -29
-20 -20 -21 -21 -21 -21 -22 -23 -23 -24 -25 -25 -25 -26 -26 -27 -28 -30 -30 -30 -30 -30 -30 -30 -30 -30 -30 -29 -29 -29 -29 -29
-21 -21 -21 -21 -22 -23 -24 -24 -25 -25 -26 -26 -26 -27 -28 -29 -30 -31 -31 -30 -30 -30 -30 -30 -30 -30 -30 -30 -29 -29 -29 -29

GFSFLT1_500_temp_021.txt.gz
Temp
-14 -13 -13 -13 -14 -14 -14 -14 -14 -14 -14 -14 -14 -15 -15 -15 -16 -16 -15 -15 -15 -15 -15 -15 -15 -16 -16 -16 -16 -16 -17 -17
-14 -14 -14 -14 -14 -14 -15 -15 -15 -14 -15 -15 -16 -16 -16 -16 -16 -16 -15 -15 -15 -15 -15 -15 -16 -16 -16 -17 -17 -17 -17 -18
-14 -14 -14 -14 -15 -15 -15 -15 -15 -15 -16 -16 -16 -15 -16 -16 -15 -15 -15 -16 -16 -16 -16 -17 -17 -17 -17 -18 -18 -18 -18 -18
-14 -14 -14 -15 -15 -15 -16 -16 -16 -16 -16 -16 -15 -15 -15 -15 -15 -16 -16 -17 -17 -18 -18 -18 -18 -18 -18 -18 -19 -19 -19 -19
-14 -14 -15 -15 -15 -16 -16 -16 -16 -16 -16 -15 -16 -16 -16 -16 -17 -17 -17 -18 -18 -18 -19 -19 -19 -19 -19 -19 -19 -19 -20 -20
-15 -15 -15 -15 -15 -15 -15 -16 -16 -16 -16 -16 -16 -16 -17 -17 -17 -18 -18 -19 -19 -19 -19 -19 -19 -20 -20 -20 -20 -20 -21 -21
-15 -15 -15 -15 -15 -15 -15 -16 -16 -16 -16 -16 -17 -16 -17 -17 -18 -18 -19 -19 -19 -20 -20 -20 -20 -21 -21 -21 -21 -21 -22 -22
-15 -15 -15 -15 -16 -16 -16 -16 -16 -16 -16 -17 -17 -17 -17 -17 -18 -18 -19 -19 -19 -20 -20 -20 -21 -21 -21 -22 -21 -22 -22 -22
-15 -15 -15 -15 -15 -16 -16 -16 -16 -16 -16 -17 -17 -18 -19 -19 -20 -20 -20 -20 -21 -21 -21 -21 -21 -21 -21 -21 -21 -21 -21 -22
-15 -15 -15 -16 -15 -15 -16 -16 -17 -17 -18 -19 -19 -19 -20 -20 -21 -21 -21 -21 -21 -22 -22 -22 -22 -22 -22 -22 -22 -22 -23 -23
-15 -15 -15 -15 -16 -17 -17 -18 -18 -19 -19 -19 -19 -20 -20 -21 -21 -22 -22 -22 -22 -22 -23 -23 -23 -23 -24 -24 -24 -24 -25 -26
-16 -16 -16 -17 -17 -18 -18 -18 -18 -19 -20 -20 -20 -21 -21 -22 -22 -22 -22 -22 -23 -23 -24 -24 -24 -25 -26 -27 -27 -28 -28 -28
-17 -17 -17 -17 -18 -18 -18 -19 -20 -20 -21 -21 -21 -21 -22 -22 -22 -23 -23 -23 -24 -24 -24 -26 -27 -28 -29 -30 -29 -29 -29 -29
-17 -17 -17 -17 -18 -19 -19 -20 -20 -20 -21 -21 -22 -22 -22 -23 -24 -24 -24 -24 -25 -26 -27 -28 -29 -30 -30 -30 -30 -30 -29 -29
-17 -17 -17 -17 -18 -19 -20 -21 -21 -21 -21 -22 -22 -23 -24 -24 -24 -25 -25 -26 -27 -28 -29 -30 -31 -30 -30 -30 -30 -30 -30 -30
-17 -17 -18 -18 -19 -20 -21 -21 -21 -22 -23 -24 -24 -25 -25 -25 -25 -26 -27 -28 -29 -30 -31 -31 -31 -31 -31 -30 -30 -30 -30 -30
-17 -18 -18 -20 -21 -21 -21 -22 -22 -23 -24 -25 -25 -25 -26 -26 -27 -28 -29 -30 -31 -31 -31 -31 -31 -31 -31 -30 -30 -30 -30 -30
-18 -19 -21 -21 -21 -22 -22 -22 -23 -24 -24 -25 -26 -26 -26 -28 -29 -30 -31 -31 -31 -31 -31 -31 -31 -31 -31 -30 -30 -30 -30 -30
-20 -21 -22 -22 -23 -22 -23 -24 -24 -25 -26 -26 -26 -27 -28 -29 -30 -31 -31 -31 -31 -31 -31 -31 -31 -31 -31 -31 -30 -30 -30 -30

GFSFLT1_500_temp_024.txt.gz
Temp
-14 -14 -14 -14 -14 -14 -14 -14 -14 -15 -15 -15 -15 -15 -15 -15 -15 -15 -15 -15 -15 -15 -15 -15 -15 -15 -15 -15 -16 -16 -17 -17
-14 -15 -14 -14 -14 -15 -15 -15 -15 -15 -15 -15 -15 -15 -16 -15 -16 -16 -15 -15 -15 -15 -15 -15 -15 -15 -16 -17 -17 -17 -17 -18
-14 -14 -15 -15 -15 -15 -15 -15 -15 -15 -16 -16 -16 -16 -16 -16 -16 -15 -15 -15 -15 -15 -16 -16 -16 -17 -17 -18 -18 -18 -18 -19
-14 -15 -15 -15 -15 -15 -15 -16 -16 -16 -16 -16 -16 -16 -16 -15 -15 -16 -16 -16 -17 -17 -17 -18 -18 -18 -19 -19 -19 -19 -19 -19
-15 -15 -15 -15 -15 -16 -16 -16 -16 -16 -16 -15 -15 -15 -15 -16 -16 -17 -17 -17 -18 -18 -18 -18 -19 -19 -19 -19 -19 -19 -20 -19
-14 -15 -15 -15 -15 -16 -15 -15 -15 -15 -15 -15 -16 -16 -16 -16 -17 -18 -19 -19 -19 -19 -19 -19 -19 -19 -19 -20 -20 -20 -21 -21
-15 -15 -15 -15 -15 -15 -15 -15 -15 -15 -16 -16 -17 -17 -18 -17 -17 -18 -18 -19 -19 -19 -19 -20 -20 -20 -21 -21 -21 -21 -21 -21
-15 -15 -15 -16 -16 -16 -16 -16 -16 -16 -16 -17 -17 -17 -18 -18 -19 -19 -19 -19 -20 -20 -20 -21 -21 -21 -21 -21 -21 -21 -21 -21
-16 -16 -16 -16 -16 -16 -16 -16 -16 -17 -17 -18 -18 -19 -19 -20 -20 -20 -20 -20 -20 -21 -21 -21 -21 -22 -22 -22 -22 -22 -22 -22
-16 -16 -16 -16 -16 -16 -16 -16 -17 -18 -19 -19 -19 -19 -20 -20 -20 -21 -21 -21 -21 -22 -22 -22 -22 -22 -23 -23 -23 -23 -24 -24
-16 -16 -16 -16 -16 -16 -17 -18 -18 -19 -19 -19 -19 -20 -20 -20 -21 -21 -21 -22 -22 -22 -23 -23 -24 -24 -25 -25 -26 -27 -27 -27
-16 -16 -16 -16 -17 -17 -17 -18 -18 -19 -19 -20 -20 -21 -21 -21 -21 -22 -22 -23 -23 -24 -24 -25 -26 -27 -28 -28 -29 -29 -30 -30
-16 -16 -17 -17 -17 -18 -18 -18 -19 -19 -19 -20 -21 -22 -22 -22 -23 -24 -24 -24 -25 -25 -26 -27 -28 -29 -29 -30 -30 -31 -30 -30
-17 -17 -17 -17 -18 -18 -18 -19 -20 -20 -21 -22 -22 -22 -23 -24 -24 -24 -25 -25 -26 -27 -28 -29 -30 -31 -31 -31 -31 -31 -31 -30
-17 -17 -17 -17 -18 -19 -19 -19 -20 -21 -22 -22 -22 -23 -24 -24 -24 -25 -26 -26 -28 -29 -30 -31 -31 -31 -31 -31 -31 -31 -31 -31
-17 -17 -18 -18 -19 -19 -20 -21 -22 -23 -23 -23 -23 -23 -24 -25 -25 -26 -27 -29 -30 -30 -30 -31 -31 -31 -31 -31 -31 -31 -31 -31
-17 -17 -18 -18 -19 -20 -21 -22 -23 -23 -23 -24 -24 -24 -25 -26 -27 -28 -29 -30 -31 -31 -31 -31 -31 -31 -31 -31 -31 -31 -31 -31
-18 -18 -18 -19 -20 -22 -23 -23 -23 -23 -24 -24 -25 -25 -27 -27 -28 -29 -30 -30 -31 -31 -31 -31 -31 -31 -31 -31 -31 -31 -31 -31
-19 -19 -20 -22 -23 -23 -23 -23 -24 -24 -25 -26 -26 -27 -28 -28 -30 -30 -30 -31 -31 -31 -31 -31 -31 -31 -31 -31 -31 -31 -31 -31

GFSFLT1_500_temp_027.txt.gz
Temp
-13 -13 -14 -14 -14 -15 -15 -15 -15 -15 -15 -15 -15 -15 -15 -15 -15 -15 -15 -15 -15 -15 -15 -15 -16 -16 -16 -16 -16 -16 -16 -17
-14 -14 -14 -14 -15 -15 -15 -15 -15 -15 -15 -16 -16 -16 -16 -16 -16 -16 -16 -16 -16 -16 -16 -16 -16 -17 -17 -17 -17 -17 -17 -18
-14 -14 -15 -15 -15 -15 -15 -15 -16 -16 -16 -16 -16 -16 -17 -17 -16 -16 -16 -16 -16 -16 -17 -17 -17 -17 -17 -17 -17 -18 -18 -18
-14 -14 -15 -15 -15 -16 -16 -16 -16 -16 -17 -17 -17 -17 -17 -16 -16 -16 -17 -17 -17 -17 -18 -18 -18 -18 -18 -18 -18 -19 -19 -19
-14 -15 -15 -15 -15 -16 -16 -16 -16 -17 -17 -16 -16 -17 -16 -16 -16 -17 -18 -18 -18 -19 -18 -18 -19 -19 -19 -19 -20 -20 -20 -19
-15 -15 -15 -15 -16 -16 -16 -16 -16 -16 -16 -16 -16 -16 -16 -17 -18 -17 -18 -19 -19 -19 -19 -20 -20 -20 -20 -20 -20 -20 -20 -21
-15 -15 -15 -16 -16 -16 -16 -16 -16 -16 -16 -16 -17 -17 -18 -18 -18 -18 -18 -19 -19 -20 -20 -20 -20 -20 -20 -21 -21 -21 -21 -21
-15 -15 -16 -16 -16 -16 -16 -16 -16 -16 -16 -17 -17 -17 -17 -17 -18 -19 -19 -20 -20 -20 -21 -21 -21 -21 -22 -22 -22 -22 -22 -22
-15 -16 -16 -16 -16 -16 -16 -16 -16 -16 -16 -17 -17 -18 -18 -19 -19 -19 -19 -20 -21 -21 -21 -22 -22 -22 -22 -23 -23 -23 -23 -24
-16 -16 -16 -16 -16 -16 -16 -16 -16 -17 -18 -18 -18 -19 -19 -20 -20 -21 -21 -21 -22 -22 -22 -22 -23 -24 -24 -25 -25 -26 -26 -26
-16 -16 -16 -16 -16 -17 -17 -17 -18 -18 -18 -18 -19 -20 -20 -20 -21 -21 -22 -22 -22 -22 -23 -24 -24 -24 -25 -26 -27 -28 -28 -29
-17 -17 -17 -17 -16 -16 -17 -17 -18 -18 -18 -19 -19 -20 -21 -21 -22 -22 -23 -23 -23 -24 -24 -24 -25 -27 -28 -29 -29 -30 -30 -31
-16 -16 -16 -16 -16 -17 -18 -18 -18 -18 -18 -19 -20 -20 -21 -22 -22 -23 -24 -24 -24 -25 -26 -26 -28 -29 -30 -30 -31 -31 -31 -31
-16 -16 -17 -17 -17 -18 -18 -18 -18 -19 -19 -21 -22 -23 -23 -23 -24 -24 -25 -25 -26 -26 -27 -29 -30 -30 -30 -30 -30 -31 -31 -31
-17 -17 -17 -18 -17 -17 -18 -18 -19 -20 -21 -22 -23 -23 -24 -24 -25 -25 -26 -26 -27 -28 -30 -31 -30 -30 -31 -31 -31 -31 -31 -31
-18 -18 -17 -17 -17 -18 -18 -19 -20 -21 -23 -23 -23 -24 -25 -25 -26 -26 -27 -28 -29 -30 -31 -31 -31 -31 -31 -31 -31 -31 -31 -31
-17 -17 -17 -17 -18 -18 -20 -20 -23 -24 -24 -24 -24 -25 -25 -26 -27 -28 -28 -29 -30 -31 -31 -31 -31 -31 -31 -31 -31 -31 -31 -31
-17 -17 -17 -18 -19 -20 -22 -23 -23 -23 -24 -24 -25 -26 -27 -28 -29 -29 -29 -30 -31 -31 -31 -31 -31 -31 -31 -31 -31 -32 -32 -32
-18 -18 -19 -21 -22 -23 -23 -23 -24 -25 -25 -26 -27 -28 -28 -29 -29 -30 -30 -31 -31 -31 -31 -31 -31 -32 -31 -32 -32 -33 -34 -34

GFSFLT1_500_temp_033.txt.gz
Temp
-13 -13 -14 -14 -14 -14 -14 -14 -14 -14 -14 -15 -15 -15 -15 -16 -16 -16 -15 -15 -15 -15 -15 -15 -15 -15 -16 -16 -16 -16 -16 -16
-14 -14 -14 -14 -15 -15 -15 -15 -15 -15 -15 -15 -16 -16 -16 -16 -16 -16 -15 -16 -16 -16 -16 -16 -16 -16 -16 -16 -16 -16 -16 -16
-14 -15 -15 -15 -15 -15 -15 -16 -16 -16 -16 -16 -16 -17 -17 -17 -17 -16 -16 -16 -16 -16 -16 -16 -16 -16 -16 -17 -17 -16 -16 -17
-15 -15 -15 -15 -15 -16 -16 -16 -16 -16 -16 -17 -17 -17 -17 -17 -17 -17 -16 -16 -16 -16 -16 -16 -16 -16 -17 -17 -17 -18 -18 -19
-15 -15 -16 -16 -16 -16 -16 -16 -16 -17 -17 -17 -17 -17 -17 -17 -17 -17 -17 -17 -17 -17 -17 -18 -18 -18 -18 -18 -19 -19 -19 -20
-15 -16 -16 -16 -16 -16 -16 -16 -16 -16 -17 -17 -17 -17 -17 -17 -17 -17 -17 -17 -18 -18 -18 -19 -19 -19 -20 -20 -20 -21 -21 -21
-15 -16 -16 -16 -16 -17 -17 -16 -16 -16 -16 -16 -17 -17 -17 -17 -17 -17 -17 -18 -18 -19 -19 -20 -20 -21 -21 -21 -22 -23 -23 -22
-16 -16 -16 -16 -16 -16 -16 -17 -17 -17 -17 -17 -17 -16 -16 -17 -17 -17 -18 -19 -19 -19 -20 -20 -22 -22 -23 -23 -23 -23 -23 -23
-16 -17 -17 -17 -16 -16 -17 -17 -17 -18 -17 -17 -17 -17 -17 -17 -18 -18 -18 -19 -19 -20 -21 -21 -23 -23 -23 -23 -23 -23 -24 -24
-17 -17 -17 -17 -17 -17 -17 -18 -18 -17 -17 -17 -17 -17 -17 -18 -18 -19 -20 -21 -22 -22 -23 -23 -24 -24 -24 -24 -25 -25 -26 -27
-17 -17 -17 -17 -17 -17 -17 -17 -17 -17 -17 -17 -17 -17 -17 -19 -20 -21 -22 -23 -23 -23 -23 -24 -24 -25 -25 -26 -27 -28 -29 -29
-18 -18 -18 -18 -17 -17 -17 -16 -16 -16 -17 -17 -17 -18 -18 -20 -21 -22 -23 -23 -24 -24 -25 -25 -26 -26 -27 -28 -29 -30 -30 -31
-18 -18 -17 -17 -17 -17 -17 -17 -17 -17 -17 -18 -18 -18 -19 -21 -23 -23 -24 -24 -25 -25 -26 -27 -28 -29 -29 -30 -30 -31 -31 -31
-18 -17 -17 -17 -17 -17 -17 -17 -17 -17 -18 -18 -18 -19 -20 -22 -23 -24 -24 -25 -26 -27 -28 -29 -30 -30 -31 -31 -31 -31 -32 -32
-18 -18 -18 -18 -17 -17 -17 -18 -18 -18 -18 -20 -21 -21 -22 -23 -23 -24 -25 -26 -28 -29 -30 -30 -31 -31 -31 -31 -32 -32 -32 -32
-18 -18 -18 -18 -18 -18 -18 -18 -18 -19 -20 -21 -22 -22 -22 -23 -24 -24 -25 -28 -30 -31 -31 -31 -31 -31 -31 -32 -32 -32 -32 -32
-18 -18 -18 -18 -18 -18 -18 -19 -20 -20 -20 -21 -22 -23 -22 -23 -25 -27 -28 -30 -31 -32 -32 -32 -32 -32 -32 -32 -32 -32 -32 -32
-18 -18 -18 -18 -18 -18 -19 -19 -20 -20 -21 -22 -23 -24 -25 -27 -30 -32 -32 -32 -32 -33 -33 -33 -33 -33 -33 -33 -33 -33 -32 -33
-18 -18 -18 -18 -18 -19 -19 -20 -21 -21 -22 -23 -25 -27 -28 -30 -31 -32 -32 -32 -33 -34 -34 -33 -33 -33 -33 -33 -33 -33 -33 -34

GFSFLT1_500_temp_036.txt.gz
Temp
-13 -12 -13 -13 -14 -14 -14 -14 -15 -15 -15 -15 -15 -16 -15 -16 -16 -16 -16 -16 -16 -16 -16 -16 -16 -16 -15 -15 -15 -15 -15 -15
-13 -13 -14 -14 -14 -14 -14 -15 -15 -15 -15 -15 -16 -16 -16 -17 -16 -16 -16 -16 -16 -16 -16 -16 -16 -16 -16 -16 -16 -16 -16 -16
-14 -14 -15 -16 -15 -15 -15 -15 -15 -15 -16 -16 -17 -17 -17 -17 -17 -17 -17 -17 -17 -17 -17 -17 -17 -16 -16 -16 -16 -16 -17 -17
-15 -15 -15 -16 -15 -15 -15 -16 -16 -16 -16 -17 -17 -17 -18 -18 -18 -18 -18 -18 -17 -17 -17 -17 -17 -16 -16 -17 -17 -18 -18 -18
-16 -16 -16 -16 -16 -16 -17 -17 -17 -17 -17 -17 -17 -18 -18 -18 -18 -18 -17 -17 -17 -17 -17 -17 -17 -17 -18 -18 -18 -18 -18 -19
-16 -16 -16 -16 -17 -17 -17 -17 -17 -17 -17 -17 -18 -18 -18 -18 -18 -18 -17 -17 -18 -18 -18 -18 -19 -19 -19 -19 -20 -20 -20 -21
-16 -16 -16 -17 -17 -17 -17 -17 -17 -17 -18 -18 -18 -18 -17 -17 -17 -17 -17 -18 -18 -18 -19 -19 -20 -20 -21 -21 -22 -22 -22 -22
-16 -16 -17 -17 -17 -17 -17 -17 -17 -17 -17 -17 -17 -17 -17 -17 -17 -18 -18 -18 -18 -18 -19 -20 -21 -21 -22 -22 -23 -24 -24 -24
-16 -16 -17 -17 -17 -18 -18 -18 -18 -18 -18 -18 -18 -17 -17 -17 -17 -17 -17 -18 -18 -19 -20 -20 -21 -22 -23 -23 -24 -24 -24 -24
-16 -16 -16 -18 -18 -18 -17 -17 -17 -17 -17 -17 -17 -17 -17 -17 -17 -18 -19 -19 -19 -20 -21 -22 -23 -23 -24 -25 -26 -26 -26 -27
-17 -17 -18 -17 -17 -17 -17 -17 -17 -17 -17 -17 -17 -17 -17 -18 -18 -19 -20 -21 -21 -22 -23 -23 -24 -25 -26 -27 -27 -28 -29 -30
-18 -18 -18 -17 -17 -17 -17 -17 -17 -17 -17 -17 -17 -18 -18 -19 -19 -21 -22 -22 -23 -23 -24 -25 -25 -27 -29 -29 -30 -30 -30 -31
-18 -18 -18 -18 -18 -18 -17 -18 -18 -17 -18 -18 -18 -19 -19 -20 -21 -22 -23 -23 -24 -24 -25 -26 -28 -30 -31 -31 -31 -31 -31 -31
-18 -18 -18 -18 -18 -17 -17 -17 -18 -18 -19 -19 -19 -19 -20 -21 -22 -22 -23 -23 -23 -25 -28 -29 -31 -32 -32 -32 -32 -32 -32 -32
-18 -18 -18 -18 -18 -18 -19 -19 -19 -18 -18 -19 -19 -21 -21 -22 -22 -22 -23 -24 -27 -29 -30 -31 -32 -32 -33 -33 -33 -33 -33 -33
-18 -18 -18 -18 -18 -18 -18 -18 -18 -19 -19 -20 -20 -20 -21 -21 -22 -23 -24 -27 -29 -32 -32 -32 -32 -33 -33 -33 -33 -33 -33 -33
-18 -18 -18 -18 -18 -18 -18 -18 -19 -19 -19 -19 -20 -21 -22 -23 -23 -25 -28 -30 -31 -32 -32 -32 -32 -33 -33 -33 -33 -33 -33 -33
-18 -18 -18 -18 -18 -18 -19 -19 -19 -19 -20 -21 -22 -23 -23 -24 -26 -28 -30 -31 -33 -33 -32 -32 -33 -34 -34 -33 -33 -33 -33 -33
-18 -18 -18 -18 -19 -19 -19 -19 -20 -21 -22 -23 -23 -24 -25 -27 -28 -29 -31 -33 -33 -33 -34 -33 -34 -34 -33 -33 -33 -33 -33 -33

GFSFLT1_500_temp_039.txt.gz
Temp
-13 -13 -13 -13 -13 -13 -14 -14 -14 -14 -15 -15 -16 -16 -16 -16 -16 -16 -16 -16 -17 -17 -17 -17 -16 -16 -16 -16 -16 -16 -16 -15
-14 -14 -14 -14 -14 -14 -15 -15 -15 -16 -16 -16 -16 -16 -16 -17 -17 -17 -17 -17 -17 -17 -17 -17 -16 -16 -16 -16 -16 -16 -17 -16
-15 -14 -14 -15 -15 -15 -15 -15 -16 -16 -17 -17 -17 -16 -16 -16 -17 -17 -17 -18 -17 -17 -17 -17 -17 -17 -17 -16 -16 -16 -16 -16
-15 -15 -15 -15 -15 -16 -16 -15 -15 -16 -16 -17 -17 -17 -17 -17 -17 -18 -18 -17 -17 -17 -17 -17 -17 -17 -17 -17 -17 -17 -17 -18
-15 -15 -16 -16 -16 -16 -16 -16 -17 -17 -17 -17 -18 -18 -18 -18 -18 -18 -18 -18 -19 -18 -18 -18 -18 -18 -18 -18 -18 -18 -18 -19
-15 -16 -16 -16 -16 -17 -17 -17 -18 -18 -18 -18 -18 -18 -19 -19 -18 -18 -18 -18 -18 -18 -18 -18 -18 -18 -18 -19 -19 -20 -20 -21
-15 -15 -16 -16 -16 -17 -17 -18 -18 -18 -18 -18 -18 -18 -18 -18 -18 -18 -18 -18 -18 -18 -18 -18 -19 -19 -20 -20 -21 -21 -21 -22
-16 -16 -16 -16 -16 -17 -18 -18 -19 -18 -18 -18 -18 -18 -18 -18 -18 -18 -17 -17 -17 -18 -18 -19 -19 -20 -21 -21 -22 -22 -23 -23
-16 -16 -16 -17 -18 -18 -18 -18 -17 -18 -18 -18 -18 -17 -17 -17 -17 -17 -17 -18 -18 -18 -19 -19 -20 -21 -22 -23 -23 -24 -24 -25
-16 -17 -17 -17 -17 -17 -17 -17 -17 -17 -17 -17 -17 -17 -17 -17 -17 -18 -18 -19 -19 -19 -20 -21 -22 -23 -23 -24 -24 -25 -27 -28
-17 -17 -17 -17 -17 -17 -17 -17 -17 -17 -17 -17 -17 -17 -17 -18 -18 -18 -19 -19 -20 -21 -22 -22 -23 -24 -24 -25 -26 -28 -30 -31
-17 -17 -18 -17 -18 -18 -18 -18 -18 -18 -17 -17 -17 -18 -18 -19 -19 -19 -20 -20 -21 -22 -22 -23 -24 -24 -26 -27 -29 -30 -31 -32
-16 -17 -17 -18 -18 -18 -18 -18 -18 -17 -17 -18 -18 -19 -19 -19 -19 -20 -20 -21 -22 -22 -23 -24 -26 -28 -30 -31 -32 -32 -33 -32
-17 -17 -18 -18 -18 -18 -18 -18 -18 -18 -19 -19 -19 -19 -19 -20 -20 -20 -21 -22 -23 -24 -25 -26 -29 -31 -32 -33 -33 -33 -33 -33
-18 -18 -18 -18 -18 -18 -18 -18 -18 -19 -19 -19 -19 -20 -20 -20 -21 -22 -23 -23 -24 -25 -27 -29 -31 -32 -33 -33 -33 -33 -33 -34
-18 -18 -18 -18 -19 -18 -19 -19 -19 -19 -19 -20 -20 -20 -20 -21 -22 -23 -23 -24 -25 -28 -29 -30 -32 -33 -33 -33 -34 -33 -33 -34
-18 -19 -19 -19 -19 -19 -19 -19 -19 -19 -20 -20 -20 -20 -21 -23 -24 -24 -25 -26 -28 -29 -31 -32 -34 -34 -34 -34 -33 -33 -34 -33
-19 -19 -19 -19 -19 -19 -19 -19 -19 -20 -20 -20 -20 -21 -22 -24 -24 -25 -26 -28 -29 -30 -31 -33 -34 -34 -34 -34 -33 -34 -33 -33
-19 -19 -19 -19 -19 -19 -19 -20 -20 -20 -20 -21 -21 -23 -24 -25 -25 -27 -28 -30 -30 -31 -31 -32 -33 -34 -33 -33 -34 -33 -33 -33

GFSFLT1_500_temp_042.txt.gz
Temp
-13 -13 -13 -13 -13 -13 -13 -14 -14 -14 -14 -15 -15 -16 -16 -16 -17 -16 -16 -16 -16 -17 -16 -17 -17 -17 -17 -16 -16 -16 -16 -16
-14 -14 -14 -14 -14 -14 -13 -14 -14 -15 -15 -15 -15 -15 -15 -16 -16 -17 -17 -17 -17 -17 -17 -17 -17 -17 -17 -17 -17 -17 -17 -16
-15 -15 -15 -14 -14 -14 -14 -15 -15 -15 -16 -15 -16 -16 -16 -17 -17 -17 -17 -17 -17 -17 -17 -17 -17 -17 -17 -17 -17 -17 -17 -17
-15 -15 -15 -15 -15 -15 -15 -15 -16 -16 -16 -16 -16 -16 -17 -17 -17 -17 -17 -18 -18 -18 -18 -18 -18 -18 -18 -18 -18 -18 -18 -18
-14 -15 -15 -15 -15 -15 -16 -17 -17 -16 -16 -17 -17 -17 -17 -18 -18 -18 -18 -18 -19 -19 -19 -18 -18 -18 -18 -18 -18 -18 -18 -19
-15 -15 -16 -16 -16 -16 -16 -16 -16 -17 -17 -18 -17 -18 -18 -18 -18 -18 -18 -18 -18 -18 -18 -18 -17 -17 -18 -18 -19 -19 -19 -20
-16 -15 -16 -16 -16 -16 -17 -17 -17 -18 -18 -18 -18 -19 -18 -18 -18 -18 -18 -18 -17 -17 -17 -17 -18 -18 -18 -19 -19 -20 -20 -21
-16 -16 -16 -16 -16 -16 -16 -16 -18 -18 -18 -18 -19 -18 -18 -18 -18 -17 -17 -17 -17 -17 -17 -18 -18 -19 -19 -20 -21 -21 -22 -23
-16 -17 -16 -17 -17 -17 -17 -18 -18 -19 -18 -18 -18 -17 -17 -17 -17 -17 -18 -18 -18 -18 -18 -19 -19 -20 -21 -22 -22 -23 -24 -24
-15 -16 -16 -16 -17 -17 -18 -18 -18 -17 -17 -17 -17 -17 -17 -17 -18 -18 -18 -18 -19 -19 -19 -20 -21 -22 -22 -23 -24 -24 -25 -26
-15 -16 -16 -17 -17 -17 -17 -18 -17 -18 -18 -18 -18 -18 -18 -18 -18 -18 -19 -19 -19 -20 -20 -21 -22 -22 -23 -24 -25 -26 -28 -30
-16 -16 -17 -17 -17 -18 -18 -18 -18 -18 -18 -18 -18 -18 -18 -18 -19 -19 -19 -19 -20 -20 -21 -22 -23 -24 -25 -26 -28 -29 -31 -33
-15 -16 -16 -17 -17 -18 -18 -18 -18 -18 -18 -18 -18 -18 -19 -19 -19 -19 -19 -20 -20 -21 -22 -23 -24 -25 -26 -28 -30 -31 -34 -34
-16 -16 -17 -17 -18 -18 -18 -18 -19 -18 -18 -19 -19 -19 -19 -19 -19 -19 -20 -20 -21 -22 -24 -25 -26 -27 -28 -30 -32 -34 -34 -34
-16 -17 -17 -17 -18 -18 -18 -18 -19 -19 -19 -19 -19 -19 -19 -19 -20 -20 -21 -22 -23 -24 -25 -27 -28 -29 -30 -31 -33 -34 -34 -34
-17 -17 -17 -18 -18 -18 -19 -19 -19 -19 -19 -19 -20 -19 -20 -20 -21 -21 -22 -23 -24 -26 -27 -28 -30 -30 -30 -32 -33 -33 -34 -33
-17 -18 -18 -18 -19 -19 -19 -20 -20 -20 -20 -20 -20 -20 -20 -21 -21 -22 -23 -24 -26 -27 -29 -30 -30 -31 -31 -32 -32 -33 -33 -33
-17 -18 -18 -19 -19 -20 -20 -20 -20 -20 -20 -20 -20 -20 -21 -22 -22 -24 -25 -26 -28 -29 -31 -31 -31 -31 -32 -33 -33 -33 -33 -33
-18 -18 -19 -20 -20 -20 -20 -20 -20 -20 -20 -21 -21 -21 -22 -23 -24 -25 -26 -28 -29 -31 -32 -31 -32 -32 -32 -33 -33 -33 -34 -33

GFSFLT1_500_temp_045.txt.gz
Temp
-14 -14 -14 -14 -14 -14 -14 -14 -14 -14 -14 -14 -15 -16 -15 -15 -16 -16 -16 -16 -17 -17 -17 -17 -17 -17 -17 -17 -17 -17 -16 -16
-14 -13 -14 -14 -14 -14 -14 -14 -14 -15 -15 -15 -14 -15 -15 -16 -16 -16 -16 -17 -17 -17 -17 -17 -17 -17 -17 -17 -17 -17 -17 -17
-14 -14 -14 -14 -14 -15 -15 -14 -14 -14 -15 -15 -15 -16 -16 -16 -16 -17 -17 -16 -17 -17 -17 -17 -17 -17 -18 -18 -18 -18 -18 -18
-15 -14 -14 -15 -15 -15 -15 -15 -15 -15 -15 -15 -16 -16 -16 -16 -17 -17 -17 -18 -18 -18 -18 -18 -18 -19 -19 -19 -18 -18 -18 -18
-15 -15 -15 -15 -15 -16 -16 -16 -15 -15 -16 -16 -16 -17 -17 -17 -17 -17 -18 -18 -18 -18 -18 -18 -18 -18 -18 -18 -18 -18 -18 -19
-15 -15 -14 -15 -15 -16 -16 -16 -16 -16 -17 -17 -17 -17 -18 -18 -18 -18 -19 -19 -19 -18 -18 -18 -18 -18 -18 -18 -18 -18 -18 -19
-14 -15 -15 -15 -15 -16 -16 -17 -17 -17 -17 -17 -18 -18 -18 -19 -19 -19 -18 -18 -18 -18 -18 -18 -18 -18 -18 -18 -18 -19 -19 -20
-15 -15 -15 -15 -15 -16 -16 -16 -16 -17 -17 -18 -18 -19 -19 -18 -18 -18 -18 -17 -18 -18 -18 -18 -18 -18 -19 -19 -19 -20 -21 -22
-14 -14 -15 -15 -15 -16 -16 -16 -17 -17 -18 -18 -18 -18 -18 -18 -18 -18 -18 -18 -18 -18 -18 -19 -19 -19 -20 -20 -21 -22 -22 -23
-15 -15 -15 -15 -15 -16 -16 -17 -17 -17 -18 -18 -18 -18 -18 -18 -18 -18 -18 -18 -19 -19 -19 -19 -20 -20 -21 -21 -21 -23 -23 -24
-15 -15 -15 -15 -16 -16 -16 -17 -18 -18 -18 -18 -19 -19 -18 -18 -18 -18 -19 -19 -19 -19 -19 -20 -20 -21 -21 -22 -23 -24 -26 -27
-15 -15 -15 -16 -16 -16 -17 -17 -18 -18 -19 -19 -18 -18 -19 -19 -19 -19 -19 -19 -19 -19 -20 -20 -21 -22 -23 -23 -25 -27 -28 -29
-15 -15 -15 -16 -16 -17 -17 -18 -18 -18 -19 -19 -19 -19 -19 -19 -19 -19 -19 -19 -20 -20 -21 -22 -22 -23 -24 -26 -28 -29 -30 -30
-15 -15 -16 -16 -16 -17 -18 -18 -19 -19 -19 -19 -19 -19 -19 -19 -19 -20 -20 -20 -21 -21 -22 -23 -24 -25 -27 -29 -30 -30 -31 -31
-15 -16 -16 -17 -17 -17 -18 -19 -19 -19 -19 -19 -20 -20 -19 -20 -20 -20 -21 -21 -22 -22 -23 -24 -26 -28 -29 -31 -31 -31 -31 -32
-16 -16 -16 -17 -17 -18 -19 -19 -19 -20 -20 -20 -20 -20 -20 -20 -21 -21 -22 -22 -22 -23 -24 -26 -28 -29 -31 -31 -31 -31 -32 -32
-16 -16 -17 -18 -18 -19 -19 -19 -20 -20 -20 -20 -20 -20 -21 -21 -21 -22 -22 -23 -24 -24 -26 -28 -29 -31 -32 -32 -32 -32 -32 -33
-17 -17 -18 -18 -19 -19 -19 -20 -20 -20 -21 -21 -21 -21 -21 -22 -22 -22 -23 -24 -25 -27 -28 -29 -31 -32 -32 -32 -32 -32 -33 -33
-17 -18 -18 -19 -19 -19 -20 -20 -20 -20 -21 -21 -21 -22 -22 -23 -23 -24 -24 -25 -27 -28 -30 -31 -32 -32 -32 -32 -33 -33 -33 -34

GFSFLT1_500_temp_048.txt.gz
Temp
-15 -15 -14 -14 -14 -14 -14 -14 -14 -15 -15 -14 -14 -14 -15 -15 -16 -16 -17 -17 -17 -16 -17 -17 -17 -17 -17 -17 -17 -17 -17 -17
-14 -14 -14 -14 -14 -14 -14 -14 -14 -14 -15 -15 -16 -15 -15 -16 -17 -17 -17 -17 -17 -17 -17 -17 -17 -17 -17 -17 -17 -17 -18 -18
-15 -14 -14 -14 -15 -15 -15 -15 -15 -14 -15 -15 -15 -15 -16 -16 -17 -17 -17 -17 -18 -18 -18 -18 -18 -18 -19 -19 -19 -19 -19 -18
-15 -15 -15 -15 -15 -15 -15 -15 -15 -15 -15 -15 -15 -16 -16 -16 -17 -17 -17 -18 -18 -18 -18 -18 -18 -19 -19 -19 -18 -18 -18 -18
-15 -15 -15 -15 -15 -15 -15 -15 -15 -15 -15 -15 -15 -15 -16 -16 -16 -17 -18 -18 -18 -19 -19 -19 -19 -19 -18 -18 -18 -18 -18 -18
-15 -15 -15 -15 -14 -15 -15 -15 -15 -15 -16 -16 -16 -16 -17 -17 -17 -18 -18 -19 -19 -19 -19 -18 -18 -18 -18 -18 -18 -18 -18 -18
-14 -14 -14 -14 -14 -14 -14 -14 -15 -15 -15 -15 -16 -16 -17 -17 -18 -18 -19 -19 -19 -18 -18 -18 -18 -18 -18 -18 -18 -19 -19 -19
-14 -14 -14 -14 -14 -14 -14 -14 -15 -15 -15 -16 -16 -17 -17 -18 -18 -18 -18 -18 -18 -18 -18 -18 -18 -18 -18 -19 -19 -19 -20 -20
-14 -14 -14 -14 -14 -15 -15 -15 -15 -15 -16 -16 -17 -18 -18 -18 -18 -18 -19 -19 -18 -18 -18 -18 -19 -19 -19 -19 -20 -20 -21 -22
-14 -14 -14 -15 -15 -15 -15 -15 -16 -16 -16 -17 -17 -17 -18 -18 -18 -18 -19 -19 -19 -19 -19 -19 -19 -19 -20 -20 -21 -22 -22 -23
-14 -14 -15 -15 -15 -15 -15 -16 -16 -17 -17 -17 -17 -18 -18 -18 -19 -19 -19 -19 -19 -19 -19 -19 -20 -20 -21 -21 -22 -23 -23 -25
-15 -15 -15 -15 -15 -15 -16 -16 -16 -17 -17 -17 -18 -18 -19 -19 -19 -19 -19 -19 -19 -19 -20 -20 -21 -21 -22 -23 -23 -24 -26 -28
-15 -15 -15 -15 -15 -16 -16 -16 -17 -17 -18 -18 -19 -19 -19 -20 -20 -20 -20 -20 -20 -20 -21 -21 -22 -22 -23 -24 -25 -26 -28 -30
-15 -15 -15 -15 -15 -16 -17 -17 -17 -18 -18 -19 -19 -19 -20 -20 -20 -20 -20 -20 -21 -21 -21 -22 -23 -23 -24 -26 -27 -29 -31 -31
-15 -15 -15 -15 -16 -16 -17 -18 -18 -18 -19 -19 -19 -20 -20 -20 -20 -21 -21 -21 -21 -22 -22 -23 -24 -24 -27 -28 -29 -31 -32 -32
-15 -16 -16 -16 -17 -17 -18 -18 -19 -19 -19 -20 -20 -20 -20 -21 -21 -21 -21 -22 -22 -23 -24 -24 -25 -27 -28 -29 -31 -32 -32 -32
-16 -16 -16 -17 -17 -18 -18 -19 -19 -19 -20 -20 -20 -21 -21 -21 -21 -22 -22 -23 -23 -24 -24 -25 -27 -28 -29 -31 -32 -32 -32 -32
-16 -17 -17 -17 -18 -18 -18 -19 -19 -20 -20 -20 -21 -21 -21 -22 -22 -23 -23 -23 -24 -24 -25 -27 -28 -29 -31 -32 -33 -32 -33 -33
-17 -17 -17 -18 -18 -19 -19 -20 -20 -20 -21 -21 -21 -21 -22 -23 -23 -23 -23 -24 -25 -25 -27 -28 -29 -31 -32 -33 -33 -33 -33 -33

GFSFLT1_500_temp_051.txt.gz
Temp
-15 -14 -14 -14 -14 -14 -14 -14 -14 -14 -14 -14 -15 -15 -15 -15 -15 -16 -16 -17 -17 -17 -17 -17 -18 -18 -17 -17 -17 -17 -17 -17
-15 -15 -15 -15 -15 -14 -14 -14 -14 -14 -14 -14 -14 -15 -15 -15 -16 -15 -16 -16 -17 -17 -18 -18 -18 -18 -18 -18 -18 -19 -19 -19
-15 -15 -15 -14 -15 -14 -15 -14 -15 -15 -15 -15 -15 -15 -15 -15 -16 -16 -17 -18 -18 -18 -19 -19 -19 -19 -19 -19 -19 -19 -19 -19
-15 -15 -15 -15 -15 -15 -15 -15 -15 -15 -15 -15 -15 -15 -15 -15 -16 -16 -17 -17 -17 -18 -18 -19 -19 -19 -19 -19 -19 -19 -19 -18
-15 -15 -15 -15 -15 -15 -15 -14 -14 -14 -14 -14 -14 -15 -15 -15 -15 -16 -16 -17 -18 -18 -18 -19 -19 -19 -19 -19 -19 -18 -18 -18
-15 -14 -14 -14 -14 -14 -14 -14 -14 -14 -14 -14 -14 -15 -15 -15 -15 -16 -16 -17 -17 -18 -18 -19 -19 -18 -18 -19 -18 -18 -18 -18
-14 -14 -14 -14 -14 -14 -14 -14 -14 -14 -14 -15 -15 -15 -15 -15 -15 -16 -17 -17 -18 -18 -18 -18 -18 -18 -18 -18 -18 -18 -19 -19
-14 -14 -14 -14 -14 -14 -14 -14 -14 -14 -15 -15 -15 -16 -16 -16 -16 -17 -17 -18 -18 -18 -19 -19 -19 -19 -19 -19 -19 -19 -19 -20
-14 -14 -14 -14 -14 -14 -14 -14 -14 -15 -15 -15 -16 -16 -16 -17 -17 -18 -18 -18 -19 -19 -19 -19 -19 -19 -19 -19 -20 -20 -20 -21
-14 -14 -14 -14 -14 -14 -14 -15 -15 -15 -15 -16 -16 -17 -17 -17 -18 -18 -18 -19 -19 -19 -19 -19 -19 -19 -20 -20 -20 -21 -21 -22
-14 -14 -14 -14 -14 -15 -15 -15 -15 -15 -16 -16 -17 -17 -17 -18 -18 -19 -19 -19 -19 -20 -20 -19 -20 -20 -21 -21 -21 -22 -23 -24
-14 -14 -14 -15 -15 -15 -15 -15 -16 -16 -16 -17 -17 -18 -18 -18 -19 -19 -19 -19 -20 -20 -20 -20 -21 -21 -21 -22 -22 -23 -24 -25
-14 -15 -15 -15 -15 -15 -15 -16 -16 -16 -17 -17 -17 -18 -18 -19 -19 -19 -20 -20 -20 -20 -21 -21 -21 -22 -22 -23 -23 -24 -25 -26
-15 -15 -15 -15 -15 -15 -16 -16 -17 -17 -17 -18 -18 -18 -19 -19 -20 -20 -20 -20 -21 -21 -22 -22 -22 -23 -23 -24 -24 -25 -27 -28
-15 -15 -15 -15 -16 -16 -16 -17 -17 -17 -18 -18 -19 -19 -19 -20 -20 -20 -21 -21 -21 -22 -22 -23 -23 -23 -24 -25 -26 -27 -28 -30
-15 -15 -15 -16 -16 -16 -17 -17 -18 -18 -19 -19 -19 -19 -20 -21 -21 -21 -21 -22 -22 -23 -23 -23 -23 -24 -25 -26 -27 -28 -30 -32
-16 -16 -16 -16 -17 -17 -17 -18 -18 -19 -19 -19 -20 -20 -21 -21 -21 -21 -22 -22 -23 -23 -24 -24 -25 -25 -26 -27 -28 -30 -31 -32
-16 -16 -17 -17 -17 -18 -18 -18 -19 -19 -19 -20 -20 -21 -21 -21 -21 -22 -22 -23 -24 -24 -25 -25 -25 -26 -28 -29 -30 -31 -32 -33
-17 -17 -17 -18 -18 -18 -19 -19 -19 -20 -20 -20 -21 -21 -21 -21 -22 -23 -24 -24 -24 -25 -25 -26 -26 -27 -29 -30 -31 -32 -33 -33

GFSFLT1_500_temp_054.txt.gz
Temp
-14 -14 -14 -14 -14 -14 -15 -15 -15 -15 -15 -14 -14 -14 -14 -14 -15 -15 -15 -15 -15 -15 -16 -17 -17 -17 -17 -18 -18 -18 -18 -18
-14 -15 -15 -15 -14 -15 -15 -15 -14 -14 -14 -14 -14 -14 -14 -14 -14 -14 -15 -15 -16 -16 -16 -17 -18 -18 -18 -18 -19 -19 -19 -19
-15 -15 -15 -14 -14 -14 -15 -14 -14 -14 -14 -14 -14 -14 -14 -14 -14 -14 -15 -15 -15 -15 -16 -17 -17 -18 -18 -18 -19 -19 -19 -19
-15 -15 -15 -15 -14 -15 -14 -15 -14 -14 -14 -14 -14 -14 -14 -14 -14 -14 -15 -15 -15 -16 -16 -17 -18 -18 -19 -19 -19 -19 -19 -19
-15 -14 -15 -15 -15 -15 -15 -14 -14 -14 -14 -14 -14 -14 -14 -14 -14 -14 -15 -15 -16 -16 -17 -17 -18 -19 -19 -19 -19 -19 -19 -19
-15 -15 -15 -15 -15 -14 -14 -14 -14 -14 -14 -14 -14 -14 -14 -14 -15 -15 -15 -16 -16 -17 -17 -18 -18 -18 -18 -18 -18 -18 -18 -18
-14 -14 -14 -14 -14 -14 -14 -14 -14 -14 -14 -14 -14 -15 -15 -15 -15 -16 -16 -16 -17 -17 -17 -17 -17 -18 -18 -19 -19 -19 -19 -19
-14 -14 -14 -14 -14 -14 -14 -14 -14 -14 -15 -15 -15 -15 -15 -16 -16 -16 -17 -17 -17 -18 -18 -18 -19 -19 -19 -19 -19 -19 -20 -20
-14 -14 -14 -14 -14 -14 -14 -14 -14 -15 -15 -15 -15 -16 -16 -16 -17 -17 -17 -18 -18 -18 -19 -19 -19 -19 -19 -20 -20 -20 -20 -21
-14 -14 -14 -14 -14 -14 -15 -14 -14 -15 -15 -15 -16 -16 -16 -16 -17 -17 -18 -18 -18 -19 -19 -19 -20 -20 -20 -20 -20 -21 -21 -22
-14 -14 -14 -14 -14 -14 -15 -15 -15 -15 -15 -15 -16 -16 -16 -17 -17 -18 -18 -19 -19 -20 -20 -20 -20 -20 -21 -21 -21 -22 -22 -23
-14 -14 -14 -14 -14 -15 -15 -15 -15 -15 -16 -16 -16 -17 -17 -18 -18 -19 -19 -19 -20 -20 -20 -20 -20 -21 -21 -21 -22 -23 -23 -24
-14 -15 -15 -15 -15 -15 -15 -15 -16 -16 -16 -17 -17 -17 -18 -19 -19 -19 -19 -20 -20 -20 -20 -20 -21 -22 -22 -23 -23 -24 -24 -25
-15 -15 -15 -15 -15 -15 -15 -16 -16 -16 -17 -17 -17 -18 -19 -19 -19 -20 -20 -20 -20 -21 -21 -21 -22 -23 -23 -24 -24 -25 -25 -26
-15 -15 -15 -15 -15 -16 -16 -16 -17 -17 -17 -18 -18 -19 -19 -20 -20 -20 -20 -21 -21 -21 -22 -22 -23 -23 -24 -25 -25 -25 -26 -27
-15 -15 -15 -15 -16 -16 -17 -17 -17 -18 -18 -19 -19 -19 -20 -20 -20 -21 -21 -21 -22 -22 -22 -23 -24 -24 -24 -25 -25 -26 -27 -28
-15 -15 -15 -15 -16 -17 -17 -17 -18 -18 -19 -19 -20 -20 -20 -20 -21 -21 -22 -22 -22 -22 -23 -23 -24 -25 -25 -26 -26 -27 -28 -29
-16 -16 -16 -16 -16 -17 -17 -18 -18 -19 -19 -20 -20 -20 -20 -21 -21 -22 -22 -22 -23 -23 -23 -24 -25 -25 -26 -27 -28 -29 -29 -30
-16 -16 -17 -17 -17 -18 -18 -18 -19 -19 -19 -20 -20 -20 -21 -21 -22 -22 -22 -23 -23 -23 -24 -25 -26 -26 -27 -28 -29 -30 -30 -32

GFSFLT1_500_temp_057.txt.gz
Temp
-13 -13 -13 -14 -14 -14 -13 -14 -15 -15 -15 -15 -15 -14 -14 -14 -14 -14 -14 -14 -14 -14 -15 -15 -15 -15 -16 -16 -17 -17 -18 -18
-13 -13 -12 -13 -15 -15 -14 -15 -14 -14 -14 -14 -14 -14 -14 -14 -14 -14 -14 -14 -14 -14 -15 -15 -16 -16 -16 -16 -17 -17 -17 -18
-14 -14 -13 -13 -14 -14 -14 -14 -14 -14 -14 -14 -14 -14 -14 -14 -14 -14 -14 -14 -15 -15 -15 -15 -16 -16 -16 -16 -17 -17 -18 -19
-14 -14 -14 -14 -14 -14 -14 -14 -14 -14 -14 -14 -14 -14 -14 -14 -14 -14 -14 -15 -15 -15 -15 -16 -16 -16 -17 -17 -17 -18 -18 -19
-14 -15 -15 -14 -14 -14 -14 -14 -14 -14 -14 -14 -14 -14 -14 -15 -15 -15 -15 -15 -15 -16 -16 -16 -17 -17 -17 -18 -18 -18 -18 -19
-14 -15 -15 -14 -14 -14 -14 -14 -14 -14 -14 -15 -14 -15 -15 -15 -15 -15 -15 -15 -15 -16 -16 -17 -18 -18 -18 -18 -18 -18 -19 -19
-14 -14 -14 -14 -14 -14 -14 -14 -15 -15 -14 -15 -15 -15 -15 -15 -15 -15 -15 -16 -16 -16 -17 -17 -17 -17 -17 -18 -18 -18 -19 -19
-14 -14 -14 -14 -14 -14 -14 -14 -15 -15 -15 -15 -15 -15 -15 -15 -15 -16 -16 -16 -17 -17 -18 -18 -18 -18 -19 -19 -19 -20 -20 -20
-14 -14 -14 -14 -14 -14 -14 -14 -14 -15 -15 -15 -15 -15 -16 -16 -16 -16 -17 -17 -17 -18 -19 -19 -19 -19 -20 -20 -20 -20 -20 -20
-14 -14 -14 -14 -14 -14 -14 -14 -15 -15 -15 -16 -16 -16 -16 -17 -17 -17 -17 -18 -19 -19 -19 -19 -20 -20 -20 -21 -21 -21 -21 -21
-14 -14 -14 -14 -15 -15 -15 -15 -15 -15 -16 -16 -16 -17 -17 -17 -17 -18 -18 -19 -19 -20 -20 -20 -20 -21 -21 -21 -21 -21 -21 -22
-14 -14 -14 -14 -15 -15 -15 -15 -15 -15 -15 -16 -16 -17 -17 -17 -18 -18 -19 -19 -19 -20 -20 -20 -21 -21 -22 -21 -22 -22 -23 -23
-15 -14 -14 -14 -15 -15 -15 -15 -16 -16 -16 -16 -17 -17 -18 -18 -18 -19 -19 -19 -20 -20 -20 -21 -21 -21 -22 -22 -22 -23 -23 -24
-15 -15 -15 -15 -15 -15 -15 -16 -16 -17 -17 -17 -18 -18 -18 -19 -19 -19 -19 -20 -20 -21 -21 -21 -22 -22 -22 -23 -23 -23 -24 -25
-15 -15 -14 -14 -15 -16 -17 -17 -17 -17 -17 -18 -18 -19 -19 -19 -20 -20 -20 -21 -21 -21 -21 -22 -22 -22 -23 -23 -23 -24 -25 -26
-15 -15 -16 -16 -17 -17 -17 -17 -18 -18 -18 -18 -19 -19 -19 -20 -20 -21 -21 -21 -22 -21 -22 -22 -22 -23 -23 -23 -24 -25 -26 -26
-16 -16 -16 -16 -16 -17 -17 -18 -18 -18 -19 -19 -19 -20 -20 -20 -21 -21 -21 -22 -22 -22 -22 -23 -23 -23 -24 -25 -26 -26 -27 -28
-16 -16 -16 -16 -17 -17 -17 -17 -18 -18 -19 -19 -20 -20 -20 -21 -21 -21 -22 -22 -22 -23 -23 -23 -23 -24 -25 -26 -26 -27 -29 -30
-16 -16 -16 -16 -16 -16 -17 -18 -18 -18 -19 -20 -20 -21 -21 -21 -22 -22 -22 -22 -23 -23 -23 -23 -25 -26 -26 -27 -28 -29 -30 -31

GFSFLT1_500_temp_063.txt.gz
Temp
-15 -15 -14 -14 -14 -14 -14 -14 -14 -15 -15 -15 -15 -14 -14 -14 -14 -14 -14 -14 -14 -14 -15 -15 -15 -15 -15 -15 -15 -16 -16 -16
-14 -14 -15 -15 -15 -14 -14 -15 -15 -15 -15 -15 -14 -14 -14 -14 -14 -14 -14 -14 -14 -15 -15 -15 -15 -15 -15 -16 -16 -16 -16 -17
-15 -15 -14 -14 -14 -14 -14 -15 -15 -15 -15 -14 -14 -14 -14 -14 -14 -14 -14 -14 -15 -15 -15 -15 -15 -16 -16 -16 -16 -16 -17 -17
-15 -15 -15 -15 -15 -15 -15 -15 -15 -15 -15 -14 -14 -14 -14 -14 -14 -14 -14 -15 -15 -15 -15 -16 -16 -16 -16 -16 -17 -17 -17 -18
-15 -15 -15 -15 -15 -15 -15 -15 -15 -15 -15 -15 -15 -15 -14 -15 -15 -14 -15 -15 -15 -15 -16 -16 -16 -16 -17 -17 -17 -18 -18 -18
-15 -14 -14 -14 -15 -15 -15 -15 -15 -15 -15 -15 -15 -15 -15 -15 -15 -15 -15 -15 -15 -16 -16 -17 -17 -17 -17 -18 -18 -18 -18 -19
-15 -15 -14 -14 -14 -15 -15 -15 -15 -15 -15 -15 -15 -15 -15 -15 -15 -15 -15 -16 -16 -16 -16 -16 -17 -17 -18 -18 -19 -19 -19 -19
-15 -15 -15 -15 -15 -15 -15 -15 -15 -15 -15 -15 -15 -15 -15 -15 -15 -16 -16 -16 -16 -16 -16 -17 -18 -18 -19 -19 -19 -19 -19 -19
-15 -15 -15 -14 -15 -15 -15 -15 -15 -15 -15 -15 -15 -15 -15 -15 -15 -15 -15 -15 -16 -17 -18 -19 -19 -19 -19 -19 -19 -19 -19 -20
-15 -15 -15 -15 -15 -15 -15 -15 -15 -15 -15 -15 -15 -15 -15 -15 -15 -15 -16 -17 -18 -18 -19 -19 -19 -19 -20 -20 -20 -20 -20 -21
-15 -15 -15 -15 -16 -16 -15 -15 -15 -15 -15 -15 -15 -15 -15 -15 -16 -17 -18 -19 -18 -18 -19 -19 -19 -20 -20 -20 -21 -21 -21 -22
-16 -15 -15 -16 -16 -16 -16 -16 -15 -15 -15 -15 -15 -15 -15 -16 -17 -18 -18 -19 -19 -19 -19 -20 -20 -20 -21 -21 -21 -22 -22 -22
-16 -16 -15 -16 -16 -16 -16 -16 -16 -15 -15 -16 -17 -17 -18 -18 -18 -18 -19 -19 -19 -20 -20 -20 -21 -21 -21 -21 -21 -21 -22 -23
-16 -16 -16 -16 -16 -16 -16 -16 -16 -16 -16 -16 -17 -18 -18 -17 -18 -18 -19 -19 -19 -20 -20 -20 -21 -21 -21 -21 -22 -22 -23 -23
-15 -16 -16 -15 -16 -16 -16 -15 -16 -16 -17 -17 -17 -17 -18 -18 -18 -19 -19 -19 -20 -20 -20 -20 -21 -21 -22 -22 -23 -23 -24 -24
-16 -15 -15 -16 -16 -16 -16 -16 -16 -17 -17 -17 -17 -18 -18 -18 -19 -19 -19 -20 -20 -20 -21 -21 -21 -22 -23 -23 -24 -24 -24 -26
-15 -15 -16 -16 -16 -16 -17 -17 -17 -17 -17 -17 -18 -18 -18 -19 -19 -19 -20 -20 -20 -21 -21 -21 -22 -23 -24 -24 -25 -26 -27 -28
-16 -16 -16 -16 -16 -16 -17 -17 -17 -18 -18 -18 -18 -19 -19 -19 -19 -20 -20 -21 -21 -21 -22 -23 -23 -24 -25 -25 -26 -28 -28 -29
-16 -16 -16 -16 -16 -17 -17 -17 -17 -17 -18 -18 -19 -19 -19 -20 -20 -21 -21 -21 -21 -22 -23 -24 -25 -25 -26 -27 -28 -29 -30 -30

GFSFLT1_500_temp_066.txt.gz
Temp
-16 -15 -15 -15 -15 -15 -15 -14 -14 -14 -14 -15 -15 -15 -15 -15 -14 -14 -14 -14 -14 -14 -14 -14 -15 -15 -15 -15 -15 -16 -16 -16
-15 -15 -14 -14 -14 -14 -14 -14 -14 -14 -15 -15 -15 -15 -15 -15 -15 -14 -14 -14 -14 -14 -14 -14 -15 -15 -15 -15 -16 -16 -16 -17
-15 -15 -15 -15 -14 -15 -15 -15 -15 -15 -15 -15 -15 -15 -15 -15 -14 -14 -14 -14 -14 -14 -15 -15 -15 -15 -15 -16 -16 -16 -17 -17
-16 -15 -15 -15 -15 -15 -15 -15 -15 -15 -15 -15 -15 -15 -15 -15 -14 -14 -14 -14 -15 -15 -15 -15 -15 -16 -16 -16 -16 -17 -17 -18
-16 -15 -15 -15 -15 -15 -15 -15 -15 -15 -15 -15 -15 -15 -15 -15 -15 -15 -15 -15 -15 -15 -15 -15 -15 -16 -16 -17 -18 -18 -18 -19
-16 -16 -16 -16 -15 -15 -15 -15 -15 -15 -15 -15 -15 -15 -15 -15 -15 -15 -15 -15 -15 -15 -15 -16 -16 -17 -17 -18 -18 -18 -18 -18
-16 -15 -15 -15 -15 -15 -15 -15 -15 -15 -15 -15 -15 -15 -15 -15 -15 -15 -15 -15 -16 -16 -16 -16 -16 -17 -18 -18 -18 -18 -18 -19
-15 -15 -15 -15 -15 -15 -16 -16 -16 -16 -15 -16 -16 -15 -15 -15 -15 -15 -15 -16 -16 -16 -16 -17 -18 -18 -18 -18 -18 -19 -19 -19
-15 -14 -15 -15 -15 -15 -16 -16 -15 -15 -16 -16 -15 -15 -15 -15 -15 -15 -16 -16 -16 -17 -17 -18 -19 -19 -19 -19 -19 -19 -19 -20
-15 -15 -15 -15 -15 -15 -16 -15 -15 -15 -15 -15 -15 -15 -16 -15 -15 -16 -17 -17 -17 -18 -19 -19 -19 -19 -19 -19 -19 -19 -19 -20
-15 -15 -15 -15 -15 -15 -15 -15 -16 -15 -15 -16 -16 -16 -15 -15 -16 -16 -16 -16 -17 -19 -19 -18 -19 -19 -19 -19 -19 -20 -20 -21
-16 -15 -15 -16 -15 -16 -16 -16 -16 -16 -16 -16 -16 -16 -16 -17 -17 -17 -17 -17 -18 -19 -19 -19 -19 -19 -19 -20 -20 -21 -21 -22
-16 -16 -16 -16 -16 -16 -16 -16 -16 -16 -16 -16 -16 -17 -17 -17 -17 -17 -18 -18 -19 -18 -18 -19 -19 -20 -20 -21 -21 -21 -22 -22
-16 -16 -16 -16 -16 -17 -17 -17 -17 -16 -17 -17 -17 -17 -17 -16 -17 -18 -18 -18 -18 -18 -19 -19 -20 -20 -21 -21 -22 -22 -23 -23
-16 -16 -16 -16 -16 -16 -17 -16 -16 -16 -16 -16 -16 -17 -17 -17 -17 -18 -18 -18 -18 -19 -20 -20 -21 -21 -21 -22 -22 -23 -23 -25
-17 -17 -16 -16 -16 -16 -16 -16 -16 -16 -16 -16 -17 -18 -17 -17 -17 -18 -18 -19 -19 -20 -20 -21 -21 -21 -22 -22 -23 -23 -24 -26
-17 -16 -16 -16 -16 -16 -16 -16 -16 -16 -16 -17 -17 -17 -17 -18 -18 -18 -19 -19 -20 -20 -21 -21 -21 -22 -22 -23 -23 -24 -25 -26
-17 -16 -17 -16 -16 -16 -16 -16 -16 -16 -17 -18 -18 -18 -18 -18 -19 -19 -20 -20 -20 -21 -21 -21 -22 -23 -23 -23 -24 -25 -26 -28
-17 -17 -17 -16 -16 -16 -16 -16 -17 -17 -17 -17 -18 -18 -18 -19 -19 -20 -20 -20 -21 -21 -22 -22 -23 -23 -24 -24 -25 -26 -28 -29

GFSFLT1_500_temp_069.txt.gz
Temp
-16 -16 -16 -16 -16 -15 -15 -16 -15 -15 -14 -14 -14 -14 -14 -14 -14 -15 -15 -15 -15 -15 -15 -15 -14 -15 -15 -14 -15 -15 -15 -15
-16 -16 -15 -15 -15 -15 -15 -15 -15 -14 -14 -14 -14 -14 -15 -15 -15 -15 -15 -15 -15 -15 -15 -15 -15 -15 -15 -15 -15 -15 -15 -16
-15 -15 -15 -15 -15 -15 -15 -15 -15 -15 -14 -15 -15 -15 -15 -15 -15 -15 -15 -15 -15 -15 -15 -15 -15 -15 -15 -15 -15 -15 -16 -16
-15 -16 -16 -15 -15 -15 -15 -15 -15 -15 -15 -15 -15 -15 -15 -15 -15 -15 -15 -15 -15 -15 -15 -15 -15 -15 -15 -15 -16 -16 -16 -17
-15 -15 -15 -15 -15 -15 -15 -15 -15 -15 -16 -16 -15 -15 -15 -15 -15 -15 -15 -15 -15 -15 -15 -15 -15 -15 -15 -15 -16 -16 -17 -18
-15 -15 -15 -15 -15 -15 -15 -15 -15 -15 -16 -16 -15 -15 -15 -15 -16 -15 -15 -15 -15 -15 -15 -15 -16 -16 -16 -16 -17 -17 -18 -19
-15 -15 -15 -15 -15 -15 -15 -15 -15 -16 -16 -15 -16 -15 -15 -15 -15 -16 -16 -16 -15 -15 -16 -16 -16 -16 -16 -16 -17 -18 -18 -19
-15 -15 -15 -15 -15 -15 -16 -16 -16 -16 -16 -15 -16 -15 -16 -16 -16 -16 -16 -16 -16 -16 -16 -16 -17 -18 -18 -18 -19 -19 -19 -19
-15 -15 -15 -15 -15 -15 -16 -16 -16 -16 -16 -16 -15 -16 -16 -16 -16 -16 -16 -16 -17 -16 -17 -17 -18 -18 -19 -19 -19 -19 -19 -19
-15 -15 -15 -15 -15 -16 -16 -16 -16 -16 -16 -16 -16 -16 -16 -16 -17 -17 -16 -16 -17 -17 -17 -18 -18 -18 -18 -19 -19 -19 -19 -19
-15 -15 -15 -15 -15 -16 -16 -16 -16 -16 -16 -16 -16 -16 -16 -16 -17 -17 -17 -17 -18 -18 -17 -18 -19 -19 -19 -19 -19 -19 -20 -20
-16 -16 -15 -15 -16 -16 -16 -16 -16 -16 -16 -16 -16 -16 -16 -17 -17 -17 -17 -17 -17 -18 -18 -18 -18 -19 -19 -19 -19 -20 -20 -20
-16 -16 -16 -16 -16 -16 -16 -16 -16 -16 -16 -16 -16 -16 -16 -17 -16 -17 -17 -17 -17 -18 -18 -18 -18 -19 -19 -20 -20 -20 -21 -21
-15 -15 -16 -16 -17 -17 -17 -17 -16 -16 -16 -16 -16 -16 -16 -17 -17 -17 -17 -17 -17 -18 -18 -19 -19 -19 -19 -20 -20 -21 -21 -22
-16 -16 -16 -17 -17 -17 -17 -17 -17 -17 -17 -16 -16 -16 -17 -17 -17 -17 -17 -17 -17 -18 -18 -19 -19 -19 -20 -20 -21 -21 -22 -22
-16 -16 -17 -17 -17 -17 -17 -17 -17 -17 -17 -17 -16 -16 -17 -17 -16 -17 -16 -18 -18 -19 -19 -19 -19 -20 -21 -21 -21 -22 -23 -23
-16 -16 -17 -17 -17 -17 -17 -17 -17 -17 -17 -17 -16 -16 -17 -17 -17 -17 -18 -19 -19 -19 -19 -20 -20 -21 -21 -22 -22 -22 -23 -24
-16 -16 -17 -17 -17 -17 -17 -17 -17 -17 -17 -17 -17 -16 -17 -17 -18 -18 -18 -18 -19 -19 -20 -20 -21 -21 -22 -22 -23 -23 -24 -24
-16 -17 -17 -17 -17 -17 -17 -17 -16 -16 -16 -16 -16 -16 -16 -17 -17 -18 -18 -19 -20 -20 -20 -21 -21 -22 -23 -23 -23 -24 -24 -25

GFSFLT1_500_temp_072.txt.gz
Temp
-13 -14 -15 -15 -15 -15 -15 -15 -15 -15 -16 -15 -15 -15 -15 -15 -15 -15 -15 -15 -15 -15 -15 -15 -15 -15 -15 -15 -15 -15 -15 -14
-16 -16 -16 -16 -16 -16 -16 -15 -15 -16 -15 -15 -15 -15 -15 -15 -15 -15 -15 -15 -15 -15 -15 -15 -15 -15 -15 -15 -15 -15 -15 -15
-16 -16 -16 -16 -16 -15 -15 -15 -15 -15 -15 -15 -15 -15 -15 -15 -15 -15 -15 -15 -15 -15 -15 -15 -15 -15 -15 -15 -15 -15 -15 -15
-16 -15 -15 -15 -16 -15 -15 -15 -15 -15 -15 -15 -15 -15 -15 -15 -15 -15 -15 -15 -15 -15 -15 -15 -15 -15 -15 -15 -15 -15 -15 -16
-16 -15 -15 -15 -15 -15 -15 -15 -15 -15 -15 -15 -15 -15 -16 -15 -15 -15 -15 -15 -15 -15 -15 -15 -15 -15 -15 -16 -15 -16 -17 -16
-15 -15 -15 -15 -15 -15 -15 -15 -15 -15 -15 -15 -15 -16 -15 -15 -16 -15 -16 -16 -15 -15 -15 -16 -16 -15 -16 -16 -16 -16 -17 -18
-15 -15 -15 -15 -15 -15 -15 -15 -15 -16 -16 -16 -15 -15 -15 -16 -16 -15 -16 -16 -16 -15 -16 -16 -16 -16 -16 -16 -17 -17 -17 -18
-15 -15 -15 -15 -15 -15 -15 -15 -15 -15 -16 -16 -16 -15 -16 -16 -16 -16 -16 -16 -15 -16 -17 -16 -16 -16 -16 -17 -17 -18 -18 -18
-15 -16 -16 -15 -15 -15 -15 -16 -16 -15 -15 -16 -16 -16 -16 -16 -16 -16 -16 -16 -16 -16 -16 -16 -16 -16 -17 -17 -18 -18 -19 -18
-16 -16 -16 -16 -16 -16 -16 -15 -16 -15 -16 -16 -16 -16 -16 -16 -16 -16 -16 -16 -16 -16 -16 -17 -17 -17 -17 -17 -18 -18 -18 -18
-15 -16 -16 -16 -16 -16 -16 -16 -16 -16 -16 -16 -16 -16 -16 -16 -16 -16 -16 -16 -17 -17 -17 -17 -18 -18 -18 -18 -18 -19 -18 -19
-15 -16 -16 -16 -16 -16 -16 -16 -16 -16 -16 -16 -16 -16 -16 -16 -16 -16 -16 -17 -17 -17 -18 -18 -18 -18 -18 -18 -18 -19 -19 -19
-15 -16 -16 -16 -16 -16 -16 -16 -17 -17 -17 -16 -16 -16 -16 -16 -16 -16 -17 -17 -17 -17 -18 -17 -18 -18 -17 -18 -19 -19 -20 -20
-15 -15 -16 -16 -17 -17 -17 -17 -17 -17 -17 -16 -16 -16 -16 -16 -16 -16 -17 -17 -17 -18 -17 -17 -17 -17 -18 -19 -19 -20 -20 -20
-15 -15 -15 -15 -16 -16 -16 -17 -16 -17 -17 -17 -17 -17 -16 -16 -16 -17 -16 -16 -16 -17 -17 -17 -17 -19 -19 -19 -20 -20 -20 -21
-16 -16 -16 -16 -16 -16 -16 -17 -17 -17 -17 -17 -17 -17 -17 -17 -17 -17 -17 -17 -17 -16 -17 -18 -19 -19 -19 -19 -20 -20 -21 -21
-15 -16 -16 -16 -17 -16 -16 -17 -18 -17 -17 -17 -17 -17 -17 -17 -17 -17 -17 -17 -17 -18 -18 -18 -19 -19 -19 -20 -21 -21 -21 -22
-16 -16 -16 -17 -17 -17 -17 -17 -17 -17 -17 -17 -17 -17 -17 -17 -17 -17 -17 -17 -18 -18 -18 -19 -19 -20 -20 -21 -21 -21 -22 -22
-16 -16 -17 -17 -17 -18 -18 -17 -17 -17 -17 -17 -17 -17 -17 -17 -17 -17 -17 -17 -18 -18 -19 -19 -20 -21 -21 -21 -22 -22 -22 -23

GFSFLT1_500_temp_075.txt.gz
Temp
-13 -13 -13 -13 -13 -13 -13 -13 -13 -14 -14 -14 -15 -15 -15 -15 -15 -15 -15 -15 -15 -16 -15 -15 -15 -15 -15 -15 -15 -15 -15 -15
-14 -14 -16 -16 -15 -14 -14 -14 -14 -15 -15 -15 -15 -15 -15 -15 -15 -15 -16 -16 -16 -15 -15 -15 -15 -15 -15 -15 -15 -15 -15 -15
-16 -16 -16 -16 -15 -15 -15 -15 -15 -15 -15 -15 -15 -16 -15 -15 -15 -15 -15 -15 -15 -15 -15 -15 -15 -15 -15 -15 -15 -15 -15 -15
-16 -15 -15 -15 -15 -15 -15 -15 -15 -15 -16 -16 -15 -15 -15 -15 -15 -15 -15 -16 -15 -15 -15 -15 -15 -15 -15 -15 -15 -15 -15 -15
-15 -15 -15 -15 -15 -15 -15 -15 -15 -15 -15 -15 -15 -15 -15 -15 -15 -16 -16 -16 -16 -16 -15 -15 -15 -15 -15 -15 -15 -15 -16 -15
-15 -15 -15 -15 -15 -15 -15 -15 -15 -15 -15 -16 -15 -15 -15 -16 -16 -16 -16 -16 -15 -16 -16 -15 -15 -15 -16 -16 -16 -16 -16 -16
-15 -15 -15 -15 -15 -15 -15 -15 -16 -16 -16 -16 -15 -15 -15 -15 -16 -16 -16 -16 -16 -16 -17 -16 -16 -15 -16 -16 -16 -16 -16 -16
-15 -15 -15 -15 -15 -15 -15 -15 -15 -15 -15 -16 -16 -15 -15 -16 -16 -15 -16 -16 -16 -17 -17 -16 -16 -16 -16 -16 -16 -16 -16 -17
-15 -15 -15 -15 -15 -15 -15 -16 -16 -16 -15 -15 -16 -16 -16 -16 -16 -16 -16 -16 -16 -16 -16 -16 -17 -17 -17 -16 -17 -16 -17 -18
-15 -15 -15 -16 -16 -16 -15 -15 -15 -15 -16 -15 -16 -16 -16 -15 -16 -16 -16 -16 -16 -16 -16 -16 -16 -17 -16 -17 -17 -17 -18 -18
-15 -15 -15 -15 -15 -16 -16 -16 -16 -16 -16 -16 -16 -16 -16 -16 -16 -16 -16 -16 -16 -16 -16 -16 -16 -16 -17 -18 -17 -18 -18 -17
-15 -16 -15 -15 -15 -15 -16 -16 -16 -16 -16 -16 -16 -16 -16 -16 -16 -16 -17 -16 -16 -16 -16 -16 -17 -17 -17 -17 -18 -17 -17 -17
-16 -15 -15 -16 -16 -16 -16 -16 -16 -16 -16 -16 -17 -17 -17 -16 -16 -16 -16 -16 -16 -16 -17 -17 -17 -17 -17 -17 -18 -17 -17 -18
-15 -15 -15 -15 -16 -16 -16 -16 -17 -17 -17 -17 -17 -17 -17 -17 -17 -17 -16 -16 -16 -17 -17 -17 -17 -17 -17 -17 -17 -17 -18 -18
-15 -15 -15 -15 -15 -16 -16 -16 -16 -17 -17 -17 -17 -17 -17 -17 -17 -17 -17 -17 -17 -17 -17 -18 -18 -17 -17 -17 -17 -17 -18 -19
-15 -15 -15 -15 -15 -16 -16 -16 -16 -16 -17 -17 -17 -17 -17 -17 -17 -17 -17 -17 -17 -17 -17 -17 -17 -18 -17 -18 -19 -19 -20 -20
-15 -15 -15 -15 -16 -16 -16 -16 -17 -17 -17 -18 -18 -17 -17 -17 -17 -17 -17 -17 -17 -17 -17 -17 -17 -18 -19 -19 -19 -20 -20 -21
-15 -15 -15 -15 -16 -16 -16 -17 -17 -17 -18 -18 -17 -18 -17 -17 -17 -17 -17 -17 -17 -17 -18 -18 -18 -19 -19 -19 -20 -20 -21 -21
-15 -15 -15 -16 -16 -16 -17 -17 -17 -17 -18 -18 -17 -17 -17 -17 -17 -17 -17 -17 -17 -18 -18 -18 -19 -19 -20 -20 -20 -21 -21 -22

GFSFLT1_500_temp_078.txt.gz
Temp
-11 -11 -12 -13 -12 -11 -12 -12 -12 -12 -13 -12 -13 -13 -14 -14 -14 -14 -14 -15 -15 -15 -15 -15 -15 -15 -15 -15 -15 -15 -15 -15
-12 -13 -13 -13 -12 -12 -13 -13 -13 -14 -14 -13 -13 -14 -14 -15 -14 -14 -15 -15 -15 -15 -15 -15 -15 -15 -15 -15 -15 -15 -15 -15
-16 -16 -15 -15 -15 -15 -14 -14 -15 -14 -14 -14 -14 -14 -14 -14 -15 -14 -15 -15 -15 -16 -15 -15 -15 -15 -15 -15 -15 -15 -16 -16
-15 -15 -15 -15 -15 -15 -14 -14 -15 -14 -14 -14 -14 -15 -15 -15 -15 -15 -15 -15 -15 -15 -15 -15 -15 -15 -15 -15 -15 -16 -16 -16
-15 -15 -15 -14 -14 -14 -15 -15 -15 -15 -15 -15 -15 -15 -15 -15 -15 -15 -15 -16 -16 -16 -16 -16 -15 -15 -16 -16 -16 -16 -16 -15
-15 -15 -15 -15 -15 -15 -15 -15 -14 -15 -15 -15 -15 -15 -15 -15 -15 -16 -16 -16 -16 -16 -16 -16 -16 -17 -16 -16 -16 -16 -16 -16
-15 -15 -15 -15 -15 -15 -15 -15 -15 -15 -15 -15 -15 -15 -15 -15 -16 -16 -16 -16 -16 -16 -16 -16 -16 -16 -16 -16 -16 -16 -16 -16
-14 -15 -15 -15 -15 -15 -15 -15 -15 -15 -16 -15 -15 -15 -15 -16 -16 -16 -16 -16 -16 -16 -16 -16 -16 -17 -16 -16 -16 -17 -17 -17
-14 -14 -14 -15 -15 -15 -15 -15 -15 -15 -15 -15 -15 -15 -15 -16 -15 -16 -16 -16 -16 -16 -16 -16 -16 -16 -17 -16 -16 -17 -17 -17
-15 -15 -14 -15 -15 -15 -15 -15 -15 -15 -15 -15 -16 -16 -16 -16 -16 -16 -16 -16 -16 -16 -16 -16 -16 -16 -16 -16 -16 -17 -17 -18
-15 -15 -15 -14 -15 -15 -15 -15 -15 -15 -15 -15 -16 -16 -16 -16 -16 -16 -16 -16 -16 -16 -16 -16 -16 -16 -16 -17 -17 -17 -18 -18
-15 -16 -16 -15 -15 -15 -15 -15 -15 -15 -15 -15 -16 -16 -17 -16 -17 -16 -17 -17 -16 -16 -16 -16 -16 -16 -17 -17 -18 -17 -18 -18
-15 -15 -16 -16 -15 -15 -15 -15 -15 -15 -15 -15 -16 -17 -17 -17 -17 -17 -17 -17 -17 -17 -17 -16 -16 -17 -17 -17 -17 -17 -18 -18
-15 -15 -15 -15 -15 -15 -15 -15 -15 -16 -15 -16 -17 -17 -17 -17 -17 -17 -17 -18 -17 -17 -17 -17 -17 -17 -17 -17 -17 -18 -18 -18
-15 -15 -15 -15 -15 -15 -15 -15 -15 -16 -16 -17 -17 -16 -17 -18 -18 -18 -18 -18 -18 -17 -17 -17 -17 -17 -17 -17 -17 -18 -18 -19
-15 -15 -15 -14 -15 -15 -15 -15 -15 -16 -16 -17 -17 -17 -17 -18 -18 -18 -18 -17 -17 -17 -17 -17 -17 -17 -17 -18 -18 -18 -19 -19
-15 -15 -15 -15 -14 -15 -15 -15 -15 -16 -16 -17 -17 -17 -18 -17 -17 -17 -17 -17 -17 -17 -17 -17 -17 -17 -17 -18 -18 -19 -19 -20
-15 -16 -15 -15 -14 -15 -15 -15 -15 -15 -16 -16 -17 -18 -17 -17 -17 -17 -17 -18 -17 -17 -17 -17 -18 -18 -18 -19 -19 -19 -20 -20
-15 -15 -15 -15 -15 -15 -15 -15 -15 -16 -16 -17 -17 -17 -17 -17 -17 -17 -17 -17 -17 -17 -17 -18 -18 -18 -19 -19 -19 -20 -20 -21

GFSFLT1_500_temp_081.txt.gz
Temp
-12 -12 -12 -11 -11 -12 -11 -11 -11 -11 -11 -12 -12 -12 -12 -13 -13 -13 -14 -14 -14 -15 -15 -15 -15 -15 -15 -15 -15 -15 -15 -15
-16 -15 -13 -11 -11 -12 -12 -11 -12 -12 -12 -12 -13 -13 -13 -13 -14 -14 -14 -14 -14 -15 -15 -15 -15 -15 -15 -15 -15 -15 -15 -15
-15 -16 -15 -14 -13 -13 -14 -14 -13 -14 -14 -14 -14 -14 -14 -14 -14 -15 -15 -14 -15 -15 -15 -15 -15 -15 -15 -15 -15 -15 -15 -15
-15 -15 -15 -15 -14 -15 -15 -14 -14 -14 -14 -13 -13 -13 -14 -14 -15 -15 -15 -15 -15 -15 -15 -15 -15 -16 -15 -15 -15 -15 -15 -16
-14 -14 -14 -14 -14 -14 -14 -14 -14 -14 -14 -14 -14 -14 -14 -14 -14 -15 -15 -15 -15 -15 -15 -16 -16 -16 -16 -16 -15 -16 -16 -16
-14 -14 -14 -14 -14 -14 -14 -14 -14 -14 -14 -14 -14 -14 -14 -15 -15 -15 -15 -16 -15 -16 -16 -16 -16 -16 -16 -15 -16 -16 -16 -16
-14 -14 -14 -14 -14 -14 -14 -14 -14 -14 -13 -13 -13 -14 -14 -15 -15 -15 -15 -16 -16 -16 -16 -16 -16 -16 -16 -16 -16 -16 -16 -17
-15 -14 -15 -15 -14 -14 -14 -14 -14 -14 -14 -14 -14 -14 -15 -15 -15 -15 -16 -16 -16 -16 -16 -16 -16 -16 -16 -16 -17 -17 -16 -17
-14 -15 -15 -15 -15 -15 -14 -14 -14 -14 -14 -14 -14 -15 -15 -15 -16 -16 -16 -16 -16 -16 -16 -17 -17 -16 -16 -16 -16 -17 -17 -17
-13 -13 -15 -15 -15 -15 -15 -15 -14 -14 -14 -14 -15 -14 -15 -15 -16 -16 -17 -17 -16 -17 -17 -17 -16 -16 -16 -17 -15 -16 -16 -17
-14 -14 -14 -14 -15 -15 -15 -15 -15 -15 -15 -15 -16 -15 -15 -15 -16 -16 -17 -17 -17 -17 -17 -17 -16 -16 -16 -16 -16 -16 -17 -17
-15 -15 -14 -14 -15 -15 -15 -16 -16 -15 -15 -15 -15 -16 -16 -16 -16 -16 -17 -17 -17 -16 -17 -17 -17 -17 -17 -17 -17 -17 -18 -18
-14 -15 -15 -14 -14 -15 -15 -15 -15 -15 -15 -15 -15 -16 -16 -16 -15 -16 -16 -17 -17 -17 -17 -17 -17 -17 -17 -17 -17 -17 -17 -17
-14 -15 -15 -15 -15 -15 -15 -15 -14 -15 -15 -15 -15 -16 -17 -16 -14 -15 -17 -17 -17 -17 -17 -18 -17 -17 -17 -17 -17 -17 -17 -18
-15 -14 -15 -16 -15 -15 -15 -15 -15 -15 -15 -15 -16 -16 -16 -16 -17 -16 -17 -17 -17 -17 -17 -17 -17 -17 -17 -17 -17 -17 -18 -18
-15 -14 -14 -14 -15 -15 -15 -15 -15 -15 -16 -16 -16 -15 -16 -15 -16 -17 -17 -17 -17 -17 -17 -17 -17 -17 -17 -17 -18 -18 -18 -18
-15 -15 -15 -14 -14 -14 -15 -15 -15 -15 -15 -15 -15 -16 -16 -17 -18 -18 -17 -18 -17 -18 -17 -17 -17 -17 -18 -17 -18 -18 -19 -19
-16 -16 -16 -14 -14 -14 -15 -15 -15 -15 -15 -15 -15 -16 -16 -16 -17 -17 -17 -17 -17 -17 -17 -17 -17 -17 -18 -18 -18 -18 -19 -19
-15 -15 -15 -15 -15 -15 -15 -15 -15 -15 -15 -15 -16 -16 -16 -16 -16 -17 -17 -17 -17 -17 -17 -17 -17 -18 -18 -18 -19 -19 -19 -20

GFSFLT1_500_temp_084.txt.gz
Temp
-12 -12 -12 -11 -11 -11 -12 -12 -12 -12 -12 -12 -12 -12 -13 -12 -12 -13 -13 -13 -14 -14 -15 -15 -15 -15 -15 -15 -15 -15 -15 -15
-16 -14 -12 -12 -12 -12 -12 -12 -13 -12 -12 -11 -11 -12 -13 -13 -13 -13 -14 -14 -13 -14 -15 -15 -15 -15 -15 -15 -15 -15 -15 -15
-15 -15 -15 -14 -12 -12 -12 -12 -12 -12 -11 -11 -12 -13 -13 -14 -14 -15 -15 -15 -15 -15 -15 -15 -15 -15 -16 -15 -16 -15 -15 -15
-14 -14 -15 -15 -15 -14 -13 -13 -13 -13 -13 -13 -14 -14 -14 -14 -14 -15 -15 -15 -15 -15 -15 -15 -15 -15 -16 -15 -15 -15 -16 -16
-15 -14 -14 -14 -14 -14 -14 -14 -14 -14 -14 -14 -14 -14 -14 -14 -14 -14 -14 -15 -15 -15 -15 -15 -15 -16 -16 -16 -16 -16 -16 -16
-15 -15 -14 -14 -14 -14 -14 -14 -13 -13 -13 -14 -14 -14 -14 -14 -14 -14 -15 -15 -15 -15 -15 -15 -16 -16 -16 -16 -16 -16 -16 -16
-15 -15 -15 -15 -15 -14 -14 -14 -14 -13 -14 -14 -13 -13 -14 -14 -14 -14 -14 -14 -15 -15 -15 -15 -16 -16 -16 -17 -16 -16 -16 -16
-14 -14 -14 -15 -15 -15 -15 -14 -14 -14 -14 -14 -14 -14 -14 -14 -14 -14 -15 -15 -15 -15 -16 -16 -16 -16 -16 -16 -16 -16 -16 -16
-14 -14 -14 -14 -15 -15 -15 -14 -14 -15 -14 -14 -14 -14 -14 -15 -15 -15 -15 -15 -16 -16 -15 -16 -16 -16 -16 -16 -16 -16 -16 -17
-14 -14 -15 -14 -14 -15 -15 -14 -15 -15 -15 -14 -14 -15 -15 -15 -15 -15 -15 -15 -16 -15 -16 -16 -16 -16 -16 -16 -16 -17 -16 -16
-15 -14 -14 -15 -15 -15 -15 -15 -15 -15 -15 -15 -15 -15 -15 -15 -15 -16 -16 -16 -16 -16 -16 -16 -16 -16 -16 -17 -17 -17 -16 -16
-14 -14 -14 -14 -14 -15 -15 -15 -15 -15 -15 -15 -15 -15 -15 -15 -15 -15 -15 -16 -16 -16 -16 -16 -16 -16 -17 -17 -17 -17 -17 -17
-15 -15 -15 -14 -14 -14 -15 -15 -15 -15 -15 -15 -15 -15 -15 -16 -15 -15 -15 -15 -16 -16 -16 -16 -17 -17 -17 -17 -17 -17 -17 -17
-15 -15 -16 -15 -14 -14 -15 -15 -15 -15 -15 -15 -15 -15 -15 -15 -15 -15 -15 -15 -15 -16 -16 -16 -17 -17 -17 -17 -18 -18 -17 -17
-15 -15 -15 -16 -15 -14 -14 -15 -15 -15 -15 -15 -15 -15 -15 -15 -15 -15 -15 -16 -16 -16 -16 -17 -17 -18 -18 -18 -18 -18 -17 -18
-16 -15 -15 -15 -15 -15 -15 -15 -15 -15 -15 -15 -15 -15 -15 -15 -15 -15 -15 -15 -16 -16 -17 -17 -17 -17 -18 -17 -17 -18 -18 -18
-15 -15 -15 -15 -15 -14 -14 -14 -15 -15 -14 -15 -15 -15 -15 -15 -15 -16 -16 -16 -16 -16 -16 -17 -17 -18 -18 -18 -18 -18 -18 -19
-15 -15 -15 -15 -14 -14 -14 -14 -14 -14 -15 -15 -15 -15 -15 -15 -15 -15 -16 -16 -16 -16 -17 -17 -17 -17 -18 -18 -18 -19 -19 -19
-15 -16 -16 -15 -15 -15 -15 -15 -15 -15 -15 -15 -15 -15 -15 -15 -15 -15 -16 -16 -16 -16 -16 -17 -17 -17 -18 -18 -18 -19 -19 -19

GFSFLT1_500_temp_087.txt.gz
Temp
-14 -13 -12 -11 -12 -12 -12 -12 -11 -12 -12 -12 -12 -12 -13 -12 -12 -12 -13 -13 -14 -13 -13 -13 -14 -15 -16 -16 -16 -16 -16 -15
-15 -14 -13 -12 -12 -12 -12 -12 -12 -12 -12 -12 -12 -12 -12 -12 -13 -13 -13 -14 -13 -13 -13 -13 -15 -16 -16 -16 -16 -16 -16 -15
-15 -15 -14 -13 -12 -12 -12 -12 -12 -12 -11 -11 -11 -12 -13 -12 -13 -13 -14 -14 -14 -14 -15 -15 -15 -15 -16 -15 -16 -16 -15 -16
-15 -14 -15 -14 -15 -14 -14 -13 -12 -13 -12 -12 -12 -12 -12 -13 -12 -14 -14 -13 -14 -15 -15 -16 -15 -16 -16 -16 -16 -16 -16 -16
-14 -14 -14 -14 -14 -15 -15 -14 -14 -13 -13 -14 -13 -13 -13 -14 -14 -14 -14 -14 -15 -15 -15 -15 -16 -16 -16 -16 -16 -16 -16 -16
-14 -14 -14 -14 -14 -14 -14 -14 -14 -14 -14 -13 -13 -14 -14 -14 -14 -14 -14 -14 -15 -16 -15 -15 -16 -16 -16 -16 -16 -16 -16 -16
-14 -14 -14 -14 -14 -14 -14 -14 -14 -14 -14 -13 -14 -14 -14 -14 -14 -14 -14 -14 -15 -15 -15 -15 -16 -17 -17 -16 -16 -16 -16 -16
-14 -14 -15 -14 -14 -14 -14 -14 -14 -14 -14 -14 -14 -14 -14 -14 -14 -14 -14 -15 -15 -15 -15 -15 -16 -16 -16 -16 -16 -16 -16 -16
-14 -14 -14 -15 -14 -14 -14 -14 -14 -14 -14 -14 -14 -14 -14 -14 -14 -14 -14 -15 -15 -15 -16 -16 -16 -16 -16 -16 -16 -16 -16 -16
-15 -15 -14 -14 -15 -15 -15 -14 -15 -15 -14 -14 -15 -15 -15 -15 -15 -15 -15 -15 -15 -15 -16 -16 -16 -16 -16 -16 -16 -16 -16 -16
-15 -15 -15 -14 -15 -15 -15 -15 -15 -15 -16 -15 -15 -15 -15 -15 -15 -15 -15 -15 -15 -16 -16 -16 -16 -16 -16 -16 -16 -16 -17 -17
-15 -15 -15 -15 -15 -15 -15 -15 -15 -15 -15 -15 -15 -16 -15 -15 -16 -16 -16 -16 -16 -16 -16 -16 -16 -16 -15 -16 -16 -16 -16 -17
-15 -15 -15 -15 -15 -15 -15 -15 -15 -15 -15 -15 -15 -15 -15 -15 -15 -15 -16 -16 -16 -16 -16 -15 -14 -14 -15 -15 -16 -16 -17 -17
-15 -15 -16 -15 -16 -15 -15 -16 -15 -15 -15 -15 -15 -15 -15 -15 -15 -15 -15 -15 -16 -15 -15 -15 -15 -15 -16 -16 -16 -17 -17 -17
-16 -16 -16 -16 -16 -16 -16 -15 -15 -15 -15 -15 -15 -15 -15 -15 -15 -15 -15 -15 -15 -16 -16 -15 -16 -16 -16 -16 -16 -17 -17 -18
-16 -15 -16 -16 -15 -16 -16 -16 -15 -15 -15 -14 -15 -15 -15 -15 -15 -15 -16 -16 -16 -15 -16 -16 -16 -16 -17 -17 -17 -18 -17 -17
-16 -16 -16 -16 -16 -16 -15 -15 -15 -15 -15 -15 -15 -15 -15 -15 -15 -15 -15 -15 -15 -15 -16 -16 -16 -16 -17 -17 -18 -18 -17 -18
-16 -16 -15 -16 -16 -16 -15 -15 -15 -15 -15 -15 -15 -15 -15 -15 -15 -15 -15 -15 -16 -16 -16 -17 -17 -17 -17 -17 -18 -18 -18 -18
-16 -16 -15 -16 -16 -16 -16 -15 -15 -15 -15 -15 -15 -15 -15 -15 -15 -15 -15 -15 -15 -15 -16 -16 -16 -17 -17 -17 -18 -19 -19 -19

GFSFLT1_500_temp_090.txt.gz
Temp
-14 -14 -13 -13 -12 -12 -12 -12 -12 -12 -12 -12 -12 -12 -12 -13 -13 -12 -13 -13 -13 -13 -13 -13 -13 -13 -14 -14 -15 -16 -16 -16
-14 -14 -14 -13 -13 -13 -12 -12 -12 -12 -12 -13 -12 -13 -13 -12 -13 -13 -13 -13 -13 -13 -13 -14 -13 -14 -14 -15 -16 -17 -16 -16
-14 -14 -14 -14 -13 -13 -13 -12 -12 -12 -12 -13 -12 -12 -13 -13 -13 -13 -13 -13 -13 -13 -14 -14 -14 -14 -15 -16 -16 -16 -16 -16
-14 -14 -14 -14 -14 -13 -13 -13 -13 -12 -12 -12 -12 -12 -12 -13 -12 -12 -13 -13 -13 -14 -14 -14 -14 -15 -15 -16 -15 -16 -16 -16
-14 -14 -14 -14 -15 -14 -14 -14 -13 -13 -12 -12 -12 -12 -13 -14 -13 -13 -13 -13 -14 -14 -15 -15 -15 -15 -15 -16 -16 -16 -16 -16
-14 -14 -14 -14 -14 -14 -14 -14 -13 -13 -13 -13 -13 -13 -13 -13 -13 -13 -14 -14 -14 -14 -15 -15 -15 -15 -16 -16 -16 -16 -16 -16
-14 -14 -14 -15 -15 -14 -14 -14 -14 -14 -13 -13 -13 -14 -13 -13 -13 -13 -14 -14 -15 -15 -15 -15 -15 -15 -16 -16 -16 -16 -16 -16
-14 -14 -14 -15 -15 -15 -14 -14 -14 -14 -14 -14 -14 -14 -14 -14 -14 -14 -15 -15 -15 -15 -15 -15 -15 -16 -16 -16 -16 -16 -16 -16
-14 -14 -14 -14 -15 -15 -15 -14 -14 -14 -14 -14 -14 -14 -14 -14 -15 -15 -15 -15 -15 -15 -15 -15 -16 -16 -17 -16 -16 -16 -16 -16
-14 -14 -14 -14 -15 -15 -15 -15 -15 -14 -15 -14 -14 -15 -15 -15 -15 -15 -15 -15 -16 -16 -16 -15 -16 -16 -16 -15 -15 -16 -16 -16
-14 -15 -14 -15 -15 -15 -15 -15 -15 -15 -15 -15 -15 -15 -15 -15 -15 -15 -15 -15 -15 -15 -15 -15 -16 -16 -16 -16 -16 -16 -16 -16
-15 -15 -15 -15 -15 -15 -15 -15 -15 -15 -15 -15 -15 -15 -15 -15 -15 -16 -16 -15 -15 -16 -16 -16 -16 -16 -17 -17 -16 -16 -15 -16
-15 -15 -15 -15 -15 -15 -15 -15 -15 -15 -15 -15 -15 -15 -15 -15 -15 -15 -15 -16 -16 -16 -16 -16 -16 -16 -16 -16 -15 -14 -15 -16
-15 -16 -16 -16 -16 -16 -16 -15 -15 -15 -15 -15 -15 -15 -15 -16 -16 -16 -15 -16 -16 -16 -15 -15 -15 -16 -15 -15 -15 -15 -16 -16
-16 -16 -16 -16 -17 -17 -16 -16 -15 -15 -15 -15 -15 -15 -15 -15 -15 -15 -15 -16 -16 -16 -16 -15 -15 -16 -15 -15 -16 -16 -16 -16
-16 -16 -16 -16 -16 -16 -17 -17 -16 -15 -15 -15 -15 -15 -15 -15 -15 -15 -15 -15 -15 -15 -16 -16 -16 -16 -16 -16 -16 -16 -16 -17
-16 -16 -16 -16 -16 -16 -17 -17 -16 -16 -16 -15 -15 -15 -15 -15 -15 -15 -15 -15 -15 -16 -16 -16 -16 -16 -16 -17 -17 -17 -17 -17
-16 -16 -16 -16 -16 -16 -17 -17 -16 -16 -16 -15 -15 -15 -15 -15 -15 -15 -15 -15 -15 -15 -16 -16 -16 -16 -16 -17 -17 -17 -17 -17
-16 -16 -16 -16 -16 -16 -16 -16 -15 -15 -15 -15 -15 -15 -15 -15 -15 -15 -15 -15 -16 -16 -16 -16 -16 -16 -16 -16 -17 -17 -16 -16

GFSFLT1_500_temp_093.txt.gz
Temp
-13 -14 -14 -12 -12 -12 -13 -12 -12 -12 -12 -12 -12 -12 -12 -12 -12 -12 -12 -12 -12 -13 -13 -13 -13 -13 -13 -13 -13 -13 -14 -15
-14 -14 -14 -13 -12 -12 -13 -13 -12 -12 -12 -12 -12 -12 -12 -12 -12 -12 -12 -12 -13 -13 -13 -13 -13 -13 -13 -13 -13 -14 -14 -15
-14 -14 -14 -13 -12 -12 -13 -13 -13 -12 -13 -12 -13 -13 -12 -12 -12 -13 -13 -13 -13 -13 -13 -13 -13 -13 -14 -14 -14 -15 -15 -16
-14 -14 -14 -14 -13 -13 -13 -13 -13 -13 -13 -13 -13 -13 -13 -13 -13 -13 -13 -13 -13 -13 -13 -13 -13 -14 -14 -14 -15 -15 -16 -17
-14 -14 -13 -14 -14 -14 -14 -13 -13 -13 -13 -13 -13 -13 -13 -13 -13 -13 -13 -13 -13 -13 -13 -14 -14 -14 -14 -15 -15 -16 -16 -16
-14 -14 -14 -14 -14 -14 -14 -14 -14 -13 -13 -12 -12 -13 -13 -13 -14 -13 -13 -13 -13 -13 -14 -14 -14 -14 -15 -15 -15 -16 -16 -16
-15 -14 -14 -14 -14 -14 -14 -14 -14 -14 -13 -13 -13 -13 -13 -14 -14 -14 -13 -13 -13 -13 -14 -14 -14 -15 -15 -15 -16 -16 -16 -16
-14 -14 -14 -14 -14 -14 -14 -14 -14 -14 -13 -13 -14 -13 -13 -14 -14 -14 -14 -14 -14 -14 -14 -14 -15 -15 -16 -16 -16 -16 -16 -16
-15 -14 -14 -14 -14 -14 -14 -14 -14 -14 -14 -14 -14 -14 -14 -14 -13 -14 -14 -14 -14 -14 -15 -15 -15 -15 -16 -16 -16 -16 -16 -16
-15 -15 -14 -14 -14 -14 -14 -14 -14 -14 -14 -14 -14 -14 -14 -14 -14 -14 -14 -14 -15 -15 -15 -15 -15 -15 -15 -15 -15 -15 -16 -16
-15 -15 -15 -14 -14 -15 -15 -15 -15 -14 -14 -15 -14 -15 -14 -14 -14 -15 -15 -15 -15 -15 -15 -15 -15 -15 -15 -16 -16 -16 -16 -17
-15 -16 -15 -15 -15 -15 -15 -15 -15 -15 -15 -15 -15 -15 -15 -15 -15 -15 -16 -15 -15 -15 -15 -15 -16 -16 -16 -16 -16 -16 -16 -16
-15 -16 -15 -15 -15 -15 -15 -15 -15 -15 -15 -15 -15 -15 -15 -15 -15 -16 -16 -16 -15 -15 -15 -15 -15 -16 -15 -15 -16 -16 -16 -16
-16 -16 -16 -16 -16 -16 -16 -16 -16 -16 -15 -15 -15 -15 -15 -15 -16 -16 -15 -16 -16 -16 -15 -15 -15 -15 -15 -15 -16 -16 -16 -15
-16 -15 -16 -16 -16 -16 -16 -16 -16 -16 -16 -15 -15 -16 -16 -16 -16 -16 -16 -16 -15 -15 -16 -15 -15 -16 -16 -16 -16 -16 -16 -15
-16 -16 -16 -17 -16 -16 -16 -16 -16 -16 -16 -16 -15 -15 -15 -15 -15 -15 -15 -15 -15 -15 -16 -16 -16 -16 -16 -16 -16 -16 -16 -16
-17 -16 -16 -16 -17 -17 -16 -17 -17 -17 -16 -16 -16 -16 -15 -15 -15 -15 -15 -15 -15 -15 -16 -16 -16 -16 -16 -16 -16 -16 -16 -16
-16 -17 -16 -16 -16 -16 -17 -17 -17 -17 -16 -16 -16 -16 -16 -16 -16 -16 -16 -16 -16 -16 -16 -16 -16 -16 -16 -16 -16 -16 -16 -16
-17 -17 -17 -17 -17 -17 -17 -17 -17 -16 -16 -16 -16 -16 -16 -16 -16 -16 -16 -16 -16 -16 -16 -16 -16 -16 -16 -16 -16 -17 -17 -17

GFSFLT1_500_temp_096.txt.gz
Temp
-14 -13 -14 -13 -12 -11 -11 -12 -12 -12 -12 -12 -11 -11 -11 -11 -11 -12 -11 -12 -12 -12 -12 -13 -13 -13 -13 -13 -13 -13 -13 -13
-14 -14 -14 -13 -12 -12 -12 -12 -12 -12 -12 -12 -11 -12 -11 -11 -12 -12 -12 -12 -12 -12 -12 -12 -13 -13 -13 -13 -13 -13 -13 -14
-14 -14 -14 -13 -13 -12 -12 -12 -12 -12 -13 -12 -12 -11 -12 -12 -12 -12 -12 -12 -12 -12 -12 -12 -13 -13 -13 -13 -13 -13 -13 -14
-13 -13 -14 -13 -13 -13 -13 -13 -12 -12 -13 -12 -12 -12 -12 -12 -12 -12 -12 -12 -12 -12 -12 -13 -13 -13 -13 -13 -13 -14 -14 -14
-13 -13 -14 -14 -13 -13 -13 -13 -13 -12 -13 -13 -13 -12 -12 -12 -12 -12 -12 -13 -13 -13 -13 -13 -13 -13 -13 -13 -14 -14 -14 -15
-13 -13 -14 -14 -14 -13 -14 -14 -13 -13 -12 -13 -13 -13 -13 -13 -13 -12 -13 -13 -13 -13 -13 -13 -13 -13 -13 -14 -14 -14 -14 -14
-13 -13 -14 -14 -14 -14 -13 -14 -14 -13 -13 -13 -12 -12 -13 -13 -13 -13 -13 -13 -13 -13 -13 -13 -13 -14 -14 -14 -14 -14 -14 -14
-13 -13 -14 -14 -14 -14 -14 -14 -14 -14 -13 -13 -13 -13 -12 -13 -13 -13 -13 -13 -13 -13 -14 -14 -14 -14 -15 -14 -14 -15 -15 -15
-14 -14 -14 -14 -14 -14 -14 -14 -14 -14 -13 -13 -13 -13 -13 -13 -13 -13 -13 -13 -13 -13 -13 -14 -14 -14 -14 -14 -15 -15 -15 -15
-14 -14 -14 -14 -14 -14 -14 -14 -14 -14 -14 -14 -13 -13 -13 -14 -13 -13 -13 -13 -14 -14 -14 -14 -14 -14 -14 -15 -15 -15 -15 -15
-14 -14 -14 -14 -14 -14 -14 -14 -14 -14 -14 -14 -14 -14 -14 -14 -14 -14 -14 -14 -14 -14 -14 -14 -14 -15 -15 -15 -15 -15 -15 -15
-15 -14 -15 -14 -15 -15 -15 -14 -14 -14 -14 -15 -15 -14 -14 -15 -15 -14 -14 -14 -14 -15 -15 -15 -15 -15 -15 -15 -15 -15 -15 -15
-15 -15 -15 -15 -15 -15 -15 -15 -15 -15 -15 -15 -15 -15 -15 -15 -15 -15 -15 -15 -15 -15 -15 -15 -15 -15 -15 -15 -15 -16 -15 -16
-16 -16 -15 -15 -15 -15 -15 -16 -15 -15 -15 -15 -15 -15 -15 -15 -15 -15 -15 -15 -15 -15 -15 -15 -15 -15 -15 -15 -15 -15 -15 -16
-15 -16 -16 -16 -16 -16 -16 -15 -16 -16 -16 -15 -16 -16 -15 -15 -15 -15 -14 -15 -15 -15 -15 -15 -15 -15 -15 -15 -15 -16 -16 -15
-16 -16 -16 -16 -16 -16 -16 -16 -16 -16 -16 -16 -16 -16 -15 -15 -15 -15 -15 -15 -15 -15 -15 -15 -15 -15 -15 -15 -15 -15 -15 -15
-16 -16 -16 -16 -17 -17 -16 -16 -16 -16 -16 -16 -16 -16 -16 -16 -16 -16 -15 -15 -15 -15 -15 -16 -16 -15 -16 -16 -16 -16 -16 -16
-16 -16 -16 -16 -16 -16 -16 -16 -17 -17 -17 -17 -16 -16 -16 -15 -15 -15 -15 -15 -15 -15 -16 -16 -16 -16 -16 -16 -16 -16 -16 -16
-16 -16 -16 -16 -16 -17 -17 -17 -17 -17 -18 -17 -17 -17 -17 -16 -16 -16 -16 -16 -16 -16 -16 -16 -16 -16 -16 -16 -16 -16 -16 -16

GFSFLT1_500_temp_099.txt.gz
Temp
-12 -12 -13 -13 -13 -12 -12 -12 -12 -12 -11 -12 -12 -11 -11 -11 -12 -12 -11 -12 -12 -12 -12 -11 -12 -12 -12 -13 -12 -13 -13 -12
-12 -12 -13 -13 -13 -13 -12 -12 -12 -12 -12 -12 -12 -11 -11 -10 -11 -11 -12 -12 -12 -12 -12 -12 -12 -12 -12 -13 -12 -13 -12 -13
-12 -12 -13 -13 -14 -13 -13 -13 -12 -12 -12 -12 -12 -11 -11 -11 -10 -11 -12 -12 -12 -12 -12 -12 -12 -12 -12 -12 -12 -13 -13 -13
-12 -12 -13 -13 -13 -14 -13 -13 -12 -12 -12 -12 -12 -11 -11 -12 -12 -12 -12 -12 -12 -12 -12 -12 -12 -12 -12 -12 -13 -13 -13 -13
-12 -12 -12 -13 -13 -14 -14 -13 -12 -12 -12 -12 -12 -12 -12 -12 -12 -12 -12 -12 -12 -12 -12 -12 -12 -12 -12 -13 -13 -13 -13 -13
-12 -13 -12 -13 -13 -13 -13 -14 -13 -12 -12 -12 -13 -13 -12 -12 -12 -12 -12 -12 -12 -12 -12 -12 -12 -13 -13 -13 -13 -13 -13 -14
-13 -13 -13 -13 -13 -13 -13 -13 -13 -13 -13 -13 -13 -13 -13 -13 -12 -12 -12 -12 -13 -12 -12 -13 -13 -13 -13 -13 -14 -14 -14 -14
-13 -13 -13 -13 -13 -13 -13 -13 -13 -13 -13 -13 -13 -12 -12 -13 -13 -13 -13 -13 -13 -13 -13 -13 -13 -13 -13 -14 -14 -13 -14 -14
-13 -13 -13 -13 -13 -13 -14 -13 -13 -13 -13 -13 -13 -13 -13 -13 -13 -13 -13 -13 -13 -13 -14 -13 -14 -14 -13 -13 -14 -14 -14 -14
-13 -13 -13 -13 -13 -13 -14 -14 -14 -13 -13 -13 -13 -13 -13 -13 -13 -13 -13 -13 -13 -13 -13 -13 -13 -14 -14 -14 -14 -14 -14 -15
-14 -13 -14 -14 -14 -14 -14 -14 -14 -14 -14 -14 -14 -14 -13 -14 -14 -13 -13 -13 -13 -13 -13 -14 -14 -14 -14 -14 -14 -14 -14 -15
-14 -14 -14 -14 -14 -14 -14 -14 -14 -14 -14 -14 -14 -14 -14 -14 -14 -14 -14 -14 -14 -13 -13 -13 -13 -13 -14 -14 -14 -15 -15 -15
-14 -14 -14 -14 -14 -14 -14 -14 -14 -14 -15 -15 -14 -14 -14 -14 -14 -14 -14 -14 -14 -14 -14 -14 -14 -14 -14 -14 -15 -15 -15 -15
-15 -15 -14 -15 -15 -15 -15 -15 -15 -15 -15 -15 -15 -14 -15 -15 -14 -14 -14 -14 -14 -14 -15 -14 -15 -15 -15 -15 -15 -15 -15 -15
-15 -15 -15 -15 -15 -15 -15 -15 -15 -15 -15 -15 -15 -15 -14 -14 -14 -14 -14 -14 -14 -14 -15 -15 -15 -15 -15 -15 -15 -15 -15 -15
-15 -15 -15 -15 -15 -15 -16 -15 -15 -15 -15 -15 -15 -15 -15 -15 -15 -14 -15 -15 -15 -15 -15 -15 -15 -15 -15 -15 -15 -15 -15 -15
-16 -16 -15 -15 -15 -15 -16 -16 -15 -16 -15 -15 -15 -16 -15 -15 -15 -15 -15 -15 -15 -15 -15 -15 -15 -15 -15 -15 -15 -15 -15 -15
-16 -16 -16 -16 -16 -16 -16 -16 -16 -16 -16 -15 -15 -16 -16 -16 -16 -16 -15 -15 -15 -15 -15 -15 -15 -15 -15 -15 -15 -15 -16 -16
-16 -16 -16 -16 -16 -16 -16 -16 -17 -16 -16 -16 -16 -16 -16 -16 -16 -16 -16 -16 -16 -16 -16 -16 -16 -15 -15 -16 -16 -16 -16 -16

GFSFLT1_500_temp_102.txt.gz
Temp
-12 -12 -12 -12 -12 -13 -12 -12 -11 -11 -11 -11 -11 -12 -12 -12 -11 -11 -12 -12 -12 -12 -12 -11 -12 -12 -12 -12 -12 -12 -12 -12
-11 -12 -12 -12 -12 -13 -12 -12 -11 -11 -12 -12 -12 -11 -12 -12 -12 -11 -11 -12 -12 -12 -12 -12 -12 -12 -12 -12 -12 -12 -12 -13
-12 -12 -12 -12 -12 -13 -13 -12 -12 -12 -12 -12 -12 -12 -11 -12 -11 -11 -11 -12 -12 -12 -12 -12 -12 -12 -12 -12 -12 -12 -12 -12
-12 -12 -12 -12 -12 -13 -13 -13 -13 -12 -12 -12 -12 -11 -10 -10 -11 -11 -11 -12 -11 -12 -12 -12 -12 -12 -12 -12 -11 -12 -12 -12
-11 -12 -12 -12 -12 -12 -13 -13 -13 -13 -12 -12 -12 -12 -11 -11 -10 -11 -11 -11 -12 -12 -12 -12 -12 -12 -12 -12 -12 -12 -12 -13
-12 -12 -12 -12 -13 -12 -12 -13 -13 -13 -13 -13 -12 -12 -13 -12 -12 -12 -12 -13 -12 -12 -12 -12 -12 -12 -12 -12 -12 -12 -13 -13
-12 -12 -12 -12 -13 -13 -12 -13 -13 -13 -13 -13 -13 -12 -13 -13 -12 -12 -12 -13 -12 -12 -12 -12 -12 -13 -13 -12 -13 -13 -13 -13
-13 -12 -12 -12 -13 -13 -13 -13 -13 -13 -13 -13 -13 -12 -12 -12 -13 -13 -13 -12 -12 -12 -13 -13 -13 -13 -13 -13 -13 -13 -14 -14
-13 -12 -12 -13 -13 -13 -13 -13 -13 -13 -13 -13 -13 -13 -12 -12 -13 -13 -13 -13 -13 -13 -13 -13 -13 -13 -13 -13 -14 -14 -14 -14
-13 -13 -13 -13 -13 -13 -14 -13 -13 -13 -13 -13 -13 -13 -13 -13 -13 -13 -14 -13 -13 -13 -13 -14 -14 -14 -15 -15 -14 -14 -14 -14
-13 -13 -13 -13 -13 -14 -14 -14 -14 -14 -14 -14 -14 -13 -13 -13 -13 -13 -14 -13 -13 -13 -13 -13 -13 -14 -14 -13 -13 -14 -14 -14
-13 -13 -13 -13 -13 -14 -14 -14 -14 -14 -14 -14 -14 -14 -14 -14 -14 -13 -13 -13 -14 -14 -13 -13 -13 -14 -14 -14 -14 -15 -15 -15
-13 -14 -14 -13 -14 -14 -14 -14 -14 -15 -14 -14 -14 -14 -14 -14 -14 -14 -14 -14 -14 -14 -14 -14 -14 -14 -14 -14 -15 -15 -15 -15
-14 -14 -14 -14 -14 -14 -14 -14 -14 -15 -15 -15 -14 -14 -14 -14 -14 -14 -14 -14 -14 -14 -14 -15 -15 -15 -15 -15 -15 -15 -15 -15
-14 -15 -14 -14 -14 -14 -15 -15 -14 -14 -15 -15 -15 -15 -15 -14 -14 -15 -15 -15 -14 -14 -14 -14 -14 -14 -15 -15 -15 -15 -15 -16
-15 -15 -15 -15 -15 -15 -15 -15 -15 -15 -15 -15 -16 -16 -15 -15 -15 -15 -15 -15 -14 -14 -14 -14 -14 -14 -15 -16 -16 -16 -16 -16
-14 -15 -16 -16 -15 -15 -15 -15 -15 -16 -15 -15 -16 -16 -15 -16 -16 -16 -16 -15 -15 -15 -15 -15 -15 -15 -16 -16 -15 -16 -16 -16
-16 -15 -15 -15 -16 -16 -15 -15 -15 -16 -15 -16 -16 -16 -16 -16 -16 -16 -16 -16 -16 -16 -16 -15 -16 -16 -16 -16 -16 -16 -16 -16
-17 -16 -15 -14 -15 -16 -16 -16 -16 -16 -15 -15 -16 -16 -16 -15 -16 -17 -17 -17 -17 -16 -16 -16 -16 -16 -16 -16 -17 -16 -16 -16

GFSFLT1_500_temp_105.txt.gz
Temp
-11 -12 -12 -12 -12 -12 -12 -12 -12 -12 -12 -12 -12 -12 -12 -12 -13 -12 -12 -12 -13 -12 -12 -12 -13 -12 -12 -12 -12 -13 -12 -12
-10 -12 -12 -13 -13 -12 -12 -12 -13 -12 -12 -12 -12 -12 -12 -11 -12 -11 -12 -12 -12 -12 -12 -12 -13 -12 -12 -12 -13 -12 -12 -12
-10 -12 -12 -13 -13 -12 -12 -12 -13 -12 -12 -12 -12 -12 -12 -12 -12 -11 -11 -11 -12 -12 -12 -12 -12 -12 -13 -12 -12 -12 -12 -12
-11 -12 -12 -13 -13 -12 -12 -13 -13 -13 -12 -12 -12 -12 -12 -12 -11 -11 -11 -11 -11 -11 -12 -12 -12 -12 -12 -12 -12 -13 -12 -12
-12 -12 -13 -13 -13 -13 -12 -13 -13 -13 -13 -13 -12 -12 -12 -13 -12 -11 -11 -11 -11 -12 -12 -12 -12 -13 -13 -12 -13 -13 -12 -12
-12 -12 -13 -13 -13 -13 -13 -13 -13 -13 -13 -13 -13 -13 -12 -12 -12 -11 -12 -12 -12 -12 -12 -12 -12 -12 -12 -12 -12 -12 -12 -12
-12 -12 -13 -13 -13 -13 -13 -13 -13 -13 -13 -13 -13 -13 -13 -12 -12 -12 -12 -12 -12 -12 -12 -12 -12 -12 -12 -12 -12 -13 -13 -13
-12 -13 -13 -13 -13 -13 -13 -13 -13 -13 -13 -13 -13 -13 -13 -13 -12 -12 -12 -12 -12 -12 -12 -12 -12 -12 -12 -12 -13 -13 -13 -13
-13 -13 -13 -13 -13 -13 -13 -13 -13 -13 -13 -13 -13 -13 -12 -12 -12 -12 -13 -12 -12 -12 -12 -12 -12 -13 -13 -13 -13 -13 -13 -14
-13 -13 -13 -13 -14 -13 -14 -14 -14 -13 -14 -13 -13 -13 -13 -13 -13 -13 -12 -13 -13 -13 -13 -13 -13 -13 -13 -13 -13 -13 -14 -15
-13 -13 -13 -13 -13 -14 -14 -14 -14 -14 -14 -14 -14 -14 -13 -13 -13 -13 -13 -13 -13 -13 -13 -13 -13 -14 -14 -14 -14 -15 -15 -15
-14 -13 -13 -13 -13 -14 -14 -14 -14 -14 -14 -14 -14 -14 -14 -14 -14 -14 -13 -14 -14 -14 -14 -14 -14 -14 -14 -14 -14 -14 -14 -15
-14 -14 -13 -13 -14 -14 -14 -14 -15 -14 -15 -15 -15 -14 -14 -14 -14 -14 -14 -14 -14 -14 -14 -14 -14 -14 -14 -14 -14 -14 -15 -15
-14 -14 -14 -14 -14 -14 -14 -14 -15 -15 -15 -15 -15 -15 -14 -14 -14 -14 -14 -14 -14 -14 -14 -14 -14 -14 -14 -15 -15 -15 -16 -16
-14 -14 -14 -14 -14 -14 -14 -14 -15 -15 -15 -15 -15 -15 -15 -15 -15 -15 -15 -15 -14 -14 -14 -14 -14 -14 -14 -15 -15 -16 -16 -16
-15 -15 -14 -14 -14 -14 -14 -14 -15 -15 -15 -15 -15 -15 -16 -16 -15 -15 -15 -15 -15 -15 -15 -14 -15 -15 -15 -15 -16 -16 -17 -16
-15 -15 -14 -14 -15 -15 -15 -15 -15 -15 -15 -15 -15 -16 -16 -16 -16 -15 -15 -15 -15 -15 -15 -15 -15 -16 -16 -16 -16 -16 -16 -16
-15 -15 -15 -14 -15 -15 -15 -15 -16 -15 -15 -15 -15 -16 -16 -16 -16 -16 -16 -16 -16 -16 -16 -16 -16 -16 -17 -17 -16 -16 -16 -16
-16 -13 -15 -15 -15 -14 -14 -15 -15 -15 -15 -15 -15 -16 -16 -16 -16 -16 -16 -16 -17 -17 -17 -17 -17 -17 -17 -17 -17 -17 -17 -17

GFSFLT1_500_temp_108.txt.gz
Temp
-13 -13 -13 -12 -12 -12 -12 -12 -12 -12 -12 -12 -12 -12 -12 -11 -12 -12 -11 -11 -12 -11 -12 -12 -12 -12 -12 -12 -12 -13 -13 -13
-14 -13 -13 -13 -13 -13 -12 -12 -12 -12 -12 -12 -12 -12 -12 -12 -13 -12 -12 -12 -12 -11 -12 -12 -12 -12 -13 -13 -13 -13 -12 -12
-14 -13 -13 -13 -13 -13 -13 -13 -12 -13 -12 -12 -12 -12 -12 -12 -12 -12 -12 -12 -12 -12 -12 -12 -12 -12 -12 -13 -13 -13 -12 -13
-14 -13 -13 -13 -14 -13 -13 -13 -12 -13 -13 -13 -13 -13 -12 -12 -12 -12 -12 -13 -13 -12 -12 -13 -13 -13 -12 -13 -13 -13 -13 -13
-13 -14 -13 -13 -14 -13 -13 -13 -13 -13 -13 -13 -13 -13 -12 -12 -12 -12 -12 -12 -12 -12 -12 -12 -12 -13 -12 -13 -13 -13 -12 -12
-15 -13 -13 -13 -14 -13 -13 -13 -13 -13 -13 -13 -13 -13 -12 -12 -12 -13 -12 -13 -12 -13 -12 -12 -12 -12 -13 -12 -12 -13 -12 -12
-15 -14 -13 -14 -14 -13 -13 -13 -13 -13 -13 -13 -13 -13 -12 -12 -13 -12 -12 -13 -12 -13 -13 -13 -13 -12 -12 -13 -13 -13 -13 -13
-13 -14 -14 -14 -14 -13 -13 -13 -13 -13 -13 -13 -13 -13 -12 -13 -13 -11 -11 -12 -12 -13 -13 -13 -13 -12 -12 -13 -13 -13 -13 -13
-13 -13 -14 -15 -14 -14 -13 -14 -13 -13 -13 -13 -13 -13 -13 -13 -13 -12 -12 -12 -12 -12 -12 -13 -12 -12 -12 -13 -13 -13 -13 -13
-14 -13 -14 -15 -14 -14 -14 -14 -14 -14 -14 -14 -14 -13 -13 -13 -13 -13 -13 -13 -12 -12 -13 -12 -13 -13 -13 -13 -13 -13 -13 -14
-14 -15 -15 -15 -14 -14 -14 -14 -14 -14 -14 -14 -14 -14 -13 -13 -13 -14 -13 -13 -12 -13 -12 -12 -13 -13 -13 -13 -13 -13 -14 -14
-14 -14 -15 -15 -14 -14 -14 -14 -14 -14 -14 -14 -14 -14 -14 -13 -14 -14 -14 -14 -13 -13 -13 -13 -13 -14 -14 -14 -14 -14 -14 -14
-13 -14 -15 -15 -14 -14 -14 -14 -14 -14 -14 -14 -14 -15 -14 -14 -13 -14 -14 -14 -14 -15 -14 -15 -15 -15 -15 -15 -14 -14 -14 -15
-14 -14 -15 -15 -14 -14 -14 -14 -14 -15 -15 -14 -15 -14 -15 -15 -14 -14 -14 -14 -14 -14 -14 -14 -14 -14 -14 -14 -15 -15 -15 -15
-14 -14 -14 -15 -14 -15 -15 -14 -15 -15 -15 -15 -15 -15 -15 -15 -15 -15 -14 -14 -14 -14 -14 -14 -14 -14 -15 -15 -15 -15 -15 -15
-14 -14 -14 -14 -14 -14 -14 -14 -15 -15 -15 -15 -15 -15 -15 -15 -15 -15 -15 -15 -15 -15 -15 -15 -15 -15 -15 -15 -15 -15 -15 -16
-14 -14 -14 -14 -14 -15 -14 -15 -16 -15 -15 -16 -15 -15 -15 -15 -15 -15 -16 -15 -15 -15 -15 -15 -15 -15 -15 -15 -15 -15 -16 -16
-15 -15 -15 -15 -14 -14 -15 -14 -15 -16 -16 -16 -16 -16 -16 -16 -16 -15 -16 -15 -15 -15 -16 -16 -16 -16 -16 -16 -16 -16 -16 -16
-16 -16 -15 -15 -14 -14 -14 -15 -15 -15 -16 -16 -16 -16 -16 -16 -16 -16 -16 -16 -16 -16 -16 -16 -16 -16 -16 -17 -16 -16 -16 -17

GFSFLT1_500_temp_111.txt.gz
Temp
-14 -14 -14 -13 -14 -13 -13 -13 -13 -13 -13 -12 -12 -13 -13 -12 -12 -12 -12 -12 -12 -12 -12 -12 -12 -11 -11 -11 -11 -12 -13 -13
-14 -15 -14 -13 -14 -14 -14 -13 -13 -13 -12 -13 -13 -13 -13 -12 -13 -12 -12 -12 -12 -12 -12 -12 -12 -12 -11 -12 -13 -13 -13 -13
-15 -15 -14 -13 -14 -14 -14 -13 -13 -13 -12 -13 -13 -13 -13 -12 -12 -13 -12 -12 -12 -12 -12 -12 -12 -12 -12 -12 -13 -13 -12 -13
-15 -15 -14 -14 -14 -14 -15 -13 -13 -13 -12 -13 -13 -13 -13 -13 -13 -12 -12 -12 -12 -12 -12 -13 -12 -12 -12 -12 -13 -13 -13 -13
-15 -14 -14 -14 -14 -15 -15 -14 -13 -13 -13 -13 -13 -13 -13 -13 -12 -12 -12 -12 -12 -12 -12 -12 -13 -12 -12 -13 -13 -13 -13 -13
-14 -13 -14 -15 -14 -15 -15 -14 -13 -13 -13 -13 -13 -13 -13 -13 -12 -12 -13 -12 -13 -13 -13 -13 -13 -12 -12 -13 -12 -13 -13 -13
-14 -14 -14 -14 -13 -14 -14 -13 -13 -13 -13 -13 -13 -13 -13 -13 -13 -12 -13 -13 -13 -13 -13 -13 -13 -13 -13 -13 -13 -13 -13 -13
-14 -14 -14 -15 -13 -14 -14 -14 -14 -13 -13 -13 -13 -13 -13 -13 -13 -13 -13 -13 -13 -13 -13 -13 -13 -13 -13 -13 -13 -13 -13 -13
-15 -15 -15 -15 -14 -13 -14 -14 -14 -14 -14 -14 -14 -14 -13 -13 -13 -13 -13 -13 -13 -12 -13 -13 -13 -13 -13 -13 -13 -13 -13 -13
-14 -15 -15 -15 -15 -14 -15 -14 -14 -14 -14 -14 -14 -14 -13 -13 -13 -13 -13 -13 -13 -12 -12 -13 -13 -13 -13 -13 -13 -13 -13 -13
-15 -15 -15 -15 -15 -15 -14 -14 -14 -14 -14 -14 -14 -14 -14 -13 -13 -13 -13 -13 -13 -13 -12 -13 -13 -13 -13 -13 -13 -13 -13 -13
-15 -15 -15 -15 -14 -13 -15 -14 -15 -15 -15 -14 -14 -14 -14 -14 -13 -13 -13 -13 -13 -13 -12 -13 -13 -13 -13 -13 -13 -14 -14 -14
-15 -15 -15 -15 -14 -14 -14 -15 -15 -15 -15 -15 -14 -14 -14 -14 -14 -14 -13 -13 -13 -13 -13 -13 -13 -13 -13 -13 -14 -14 -14 -14
-15 -14 -14 -15 -14 -14 -14 -15 -15 -15 -15 -15 -15 -15 -15 -14 -14 -14 -14 -14 -13 -14 -13 -13 -13 -13 -13 -13 -14 -15 -16 -16
-15 -15 -14 -14 -14 -14 -14 -15 -15 -15 -15 -15 -15 -15 -15 -14 -14 -14 -14 -14 -14 -14 -14 -14 -14 -14 -14 -15 -15 -15 -15 -15
-15 -14 -14 -14 -14 -14 -14 -15 -15 -15 -16 -16 -15 -15 -15 -15 -14 -14 -14 -14 -14 -14 -14 -14 -14 -14 -14 -15 -15 -15 -15 -15
-14 -14 -14 -14 -14 -14 -14 -15 -15 -15 -15 -16 -16 -16 -15 -15 -15 -15 -15 -15 -14 -15 -15 -14 -14 -14 -14 -15 -15 -15 -15 -15
-15 -14 -15 -14 -14 -14 -14 -14 -14 -16 -16 -15 -15 -16 -16 -16 -15 -16 -16 -16 -15 -15 -15 -15 -15 -15 -15 -15 -15 -15 -15 -15
-16 -15 -15 -14 -14 -14 -14 -15 -14 -14 -16 -16 -16 -16 -16 -16 -16 -16 -16 -16 -16 -16 -16 -15 -15 -16 -16 -16 -15 -15 -16 -16

GFSFLT1_500_temp_114.txt.gz
Temp
-12 -12 -13 -14 -14 -14 -14 -13 -13 -13 -13 -13 -13 -13 -13 -12 -12 -12 -14 -12 -12 -12 -12 -12 -12 -12 -12 -12 -13 -13 -13 -12
-11 -11 -13 -14 -14 -15 -14 -13 -12 -13 -13 -13 -13 -13 -13 -12 -13 -13 -14 -13 -12 -12 -12 -12 -12 -12 -12 -12 -13 -13 -13 -12
-11 -12 -14 -14 -15 -15 -14 -14 -13 -13 -13 -13 -13 -13 -13 -13 -13 -13 -14 -12 -12 -12 -12 -12 -12 -12 -12 -12 -13 -13 -13 -13
-12 -13 -14 -14 -15 -15 -15 -14 -13 -13 -13 -13 -13 -13 -13 -13 -13 -13 -13 -12 -12 -12 -12 -12 -12 -12 -13 -12 -12 -13 -13 -13
-11 -13 -14 -14 -15 -15 -15 -14 -13 -13 -13 -13 -13 -13 -13 -13 -13 -13 -13 -14 -12 -12 -12 -12 -12 -12 -13 -13 -13 -13 -13 -13
-12 -13 -14 -13 -14 -15 -15 -13 -13 -13 -13 -13 -13 -13 -13 -13 -13 -13 -13 -13 -14 -12 -12 -12 -12 -12 -12 -13 -13 -13 -13 -13
-12 -14 -14 -14 -14 -15 -15 -14 -13 -14 -13 -14 -14 -13 -14 -13 -13 -13 -13 -13 -13 -13 -12 -12 -12 -13 -13 -13 -13 -13 -13 -13
-13 -14 -13 -14 -15 -15 -15 -14 -14 -14 -14 -14 -14 -14 -14 -14 -14 -13 -13 -13 -13 -13 -14 -14 -13 -13 -13 -13 -13 -13 -13 -13
-13 -14 -13 -14 -15 -15 -15 -14 -14 -14 -14 -14 -14 -14 -14 -14 -14 -13 -13 -13 -13 -13 -13 -14 -13 -13 -13 -13 -13 -13 -13 -13
-14 -14 -14 -15 -15 -15 -15 -14 -14 -14 -14 -14 -14 -14 -14 -14 -14 -13 -13 -13 -14 -14 -12 -13 -13 -13 -13 -13 -13 -13 -13 -13
-15 -14 -14 -15 -15 -15 -15 -14 -14 -14 -14 -14 -14 -14 -14 -14 -14 -13 -13 -13 -14 -14 -13 -13 -13 -13 -13 -13 -13 -13 -13 -13
-15 -14 -14 -15 -15 -15 -15 -14 -14 -14 -14 -14 -15 -15 -15 -14 -14 -14 -14 -14 -14 -13 -13 -13 -13 -13 -13 -13 -13 -13 -13 -13
-15 -14 -15 -15 -15 -16 -16 -15 -15 -14 -14 -14 -15 -15 -15 -14 -14 -14 -14 -14 -14 -14 -13 -13 -13 -12 -13 -13 -13 -13 -13 -14
-15 -16 -15 -15 -15 -15 -16 -15 -14 -14 -14 -14 -15 -15 -15 -15 -14 -14 -14 -14 -14 -14 -13 -13 -13 -13 -13 -13 -13 -13 -13 -14
-16 -16 -15 -15 -15 -15 -15 -15 -15 -15 -14 -15 -15 -15 -15 -15 -14 -14 -14 -14 -14 -14 -14 -14 -13 -13 -13 -13 -13 -14 -14 -14
-16 -15 -15 -15 -15 -15 -15 -15 -14 -15 -15 -15 -15 -14 -14 -15 -14 -14 -14 -14 -14 -14 -14 -14 -14 -14 -13 -13 -14 -15 -15 -15
-16 -15 -15 -15 -15 -15 -15 -15 -14 -15 -15 -15 -15 -15 -14 -15 -14 -14 -14 -14 -14 -14 -15 -14 -14 -14 -14 -14 -14 -14 -14 -15
-17 -16 -15 -15 -14 -15 -14 -14 -14 -15 -15 -15 -15 -15 -15 -15 -15 -15 -15 -15 -14 -14 -14 -14 -14 -14 -14 -14 -15 -15 -15 -15
-17 -16 -15 -15 -14 -15 -13 -14 -14 -14 -15 -16 -16 -15 -15 -15 -15 -16 -15 -15 -15 -15 -14 -14 -14 -14 -14 -14 -14 -15 -15 -15

GFSFLT1_500_temp_120.txt.gz
Temp
-11 -11 -11 -11 -11 -11 -11 -11 -12 -12 -12 -13 -14 -14 -14 -14 -14 -14 -14 -14 -14 -14 -13 -13 -13 -12 -13 -13 -13 -12 -12 -12
-11 -11 -11 -11 -11 -11 -11 -11 -12 -12 -13 -14 -14 -14 -14 -14 -14 -13 -14 -14 -14 -14 -13 -13 -13 -12 -12 -12 -13 -12 -11 -12
-12 -12 -12 -11 -11 -11 -11 -11 -11 -12 -13 -14 -14 -14 -14 -14 -14 -13 -14 -14 -14 -13 -13 -13 -13 -12 -12 -12 -12 -12 -11 -11
-12 -12 -12 -12 -11 -11 -11 -11 -12 -12 -14 -14 -14 -14 -15 -14 -14 -13 -13 -14 -14 -14 -13 -12 -12 -12 -12 -12 -13 -13 -12 -11
-12 -12 -12 -12 -11 -11 -11 -11 -11 -13 -14 -15 -15 -15 -15 -15 -14 -13 -13 -14 -14 -14 -14 -13 -11 -12 -12 -12 -12 -12 -12 -12
-13 -13 -13 -12 -12 -12 -11 -11 -11 -13 -14 -15 -15 -15 -15 -15 -14 -14 -14 -14 -14 -14 -14 -13 -12 -12 -12 -12 -12 -12 -12 -12
-14 -13 -13 -12 -12 -12 -12 -12 -11 -14 -14 -15 -15 -15 -15 -14 -14 -14 -14 -14 -13 -13 -13 -12 -12 -12 -12 -12 -12 -12 -13 -12
-15 -14 -13 -12 -12 -12 -12 -12 -12 -14 -14 -15 -15 -16 -15 -14 -14 -14 -14 -14 -13 -13 -13 -13 -12 -12 -12 -12 -12 -12 -13 -12
-14 -14 -13 -13 -12 -12 -12 -12 -12 -14 -14 -15 -15 -15 -15 -15 -14 -14 -14 -14 -13 -13 -13 -13 -13 -12 -12 -12 -12 -13 -13 -12
-15 -14 -14 -13 -13 -12 -12 -12 -12 -14 -14 -15 -15 -15 -14 -15 -14 -14 -14 -14 -13 -13 -13 -13 -14 -13 -13 -13 -12 -13 -12 -13
-15 -15 -14 -13 -13 -13 -12 -12 -13 -13 -14 -15 -15 -15 -14 -14 -14 -14 -14 -14 -14 -13 -13 -14 -14 -14 -13 -12 -13 -12 -12 -12
-15 -15 -14 -13 -13 -13 -12 -13 -13 -13 -14 -15 -15 -14 -15 -14 -14 -14 -14 -15 -14 -13 -14 -14 -14 -13 -14 -13 -13 -13 -13 -13
-16 -15 -14 -13 -13 -13 -13 -13 -13 -13 -14 -15 -15 -15 -15 -15 -14 -14 -14 -15 -14 -14 -14 -14 -14 -13 -14 -13 -13 -13 -13 -13
-17 -16 -15 -14 -13 -13 -13 -13 -13 -14 -14 -14 -14 -15 -15 -15 -15 -14 -14 -15 -14 -14 -14 -14 -14 -14 -13 -13 -13 -13 -13 -13
-17 -17 -16 -15 -14 -13 -13 -13 -14 -14 -15 -14 -14 -15 -15 -15 -15 -14 -14 -15 -15 -14 -14 -14 -14 -15 -13 -13 -13 -13 -13 -13
-18 -17 -16 -15 -14 -13 -14 -14 -14 -15 -15 -15 -15 -15 -15 -15 -15 -14 -14 -15 -14 -14 -14 -14 -14 -15 -13 -13 -13 -13 -13 -13
-19 -18 -17 -16 -15 -14 -15 -15 -15 -15 -15 -15 -15 -15 -15 -15 -15 -14 -14 -15 -15 -14 -14 -14 -14 -15 -13 -13 -13 -13 -13 -13
-19 -18 -17 -17 -16 -16 -16 -16 -15 -16 -15 -15 -15 -15 -15 -15 -15 -14 -15 -15 -15 -14 -13 -13 -14 -14 -14 -14 -13 -13 -13 -13
-19 -19 -18 -18 -16 -16 -16 -16 -15 -15 -15 -15 -15 -15 -15 -15 -15 -14 -15 -15 -15 -14 -14 -14 -14 -14 -14 -14 -14 -14 -14 -14

GFSFLT1_500_temp_123.txt.gz
Temp
-11 -11 -11 -11 -11 -11 -11 -11 -11 -11 -11 -11 -11 -12 -13 -14 -14 -14 -14 -14 -14 -13 -13 -13 -13 -13 -14 -12 -12 -12 -12 -12
-12 -11 -11 -11 -11 -11 -11 -11 -11 -11 -11 -11 -11 -11 -13 -14 -14 -14 -14 -14 -14 -13 -13 -13 -13 -13 -14 -12 -12 -12 -12 -12
-12 -12 -12 -12 -12 -11 -11 -11 -11 -11 -11 -11 -11 -12 -13 -14 -14 -14 -14 -14 -14 -14 -13 -13 -13 -13 -13 -13 -12 -12 -12 -12
-12 -13 -12 -12 -12 -12 -11 -11 -11 -11 -11 -11 -11 -12 -13 -14 -15 -14 -14 -14 -14 -13 -13 -13 -14 -13 -13 -13 -12 -12 -12 -12
-13 -13 -13 -13 -12 -12 -12 -12 -12 -11 -11 -12 -11 -13 -14 -14 -14 -14 -14 -14 -14 -14 -13 -13 -13 -13 -13 -12 -12 -12 -12 -12
-14 -14 -13 -13 -13 -12 -12 -12 -12 -11 -11 -12 -11 -13 -14 -14 -15 -15 -14 -14 -14 -14 -13 -13 -13 -13 -13 -12 -12 -12 -12 -12
-15 -14 -14 -13 -13 -13 -12 -12 -12 -11 -12 -12 -12 -13 -14 -14 -15 -15 -14 -14 -14 -14 -14 -13 -13 -13 -12 -12 -12 -12 -12 -12
-15 -15 -15 -14 -14 -13 -13 -12 -12 -12 -12 -12 -12 -14 -14 -15 -15 -15 -14 -14 -14 -14 -14 -13 -13 -13 -12 -12 -12 -12 -12 -12
-17 -16 -15 -15 -14 -14 -13 -12 -12 -12 -12 -12 -12 -14 -14 -15 -15 -15 -14 -14 -14 -14 -14 -13 -13 -13 -13 -12 -12 -12 -12 -12
-17 -16 -16 -16 -15 -14 -14 -13 -13 -12 -12 -12 -12 -14 -14 -15 -15 -15 -15 -14 -14 -14 -14 -13 -13 -13 -13 -12 -12 -12 -12 -12
-17 -17 -16 -15 -15 -15 -14 -13 -13 -12 -12 -13 -13 -14 -14 -14 -14 -15 -15 -14 -14 -14 -14 -13 -13 -14 -13 -12 -12 -12 -12 -12
-17 -17 -17 -17 -16 -15 -14 -14 -13 -13 -13 -13 -13 -13 -14 -14 -14 -14 -14 -14 -14 -14 -14 -14 -14 -13 -13 -13 -13 -12 -12 -12
-17 -17 -17 -16 -15 -15 -15 -14 -13 -13 -13 -13 -13 -13 -14 -14 -14 -15 -14 -14 -14 -14 -14 -14 -14 -13 -13 -13 -13 -13 -13 -13
-18 -18 -17 -16 -16 -15 -14 -14 -13 -13 -13 -13 -13 -13 -14 -14 -15 -15 -14 -14 -14 -14 -14 -14 -14 -14 -13 -13 -13 -13 -13 -13
-19 -18 -17 -16 -16 -15 -15 -14 -14 -13 -13 -13 -13 -13 -14 -14 -14 -15 -14 -14 -14 -14 -14 -14 -14 -14 -14 -13 -13 -13 -13 -13
-20 -19 -18 -16 -16 -15 -15 -14 -14 -13 -13 -13 -13 -13 -14 -14 -14 -15 -15 -14 -14 -14 -14 -14 -15 -14 -14 -14 -14 -13 -13 -13
-21 -20 -18 -17 -16 -16 -15 -14 -14 -13 -13 -13 -13 -13 -14 -14 -15 -15 -15 -14 -14 -14 -14 -14 -14 -15 -14 -13 -14 -13 -12 -13
-21 -20 -19 -18 -17 -16 -16 -15 -14 -13 -13 -13 -13 -14 -14 -15 -15 -15 -15 -15 -15 -14 -14 -14 -14 -14 -14 -14 -14 -13 -13 -13
-21 -20 -19 -18 -17 -17 -16 -15 -14 -14 -13 -14 -14 -15 -15 -15 -15 -15 -15 -15 -15 -15 -14 -14 -14 -14 -14 -14 -14 -14 -14 -13

GFSFLT1_500_temp_126.txt.gz
Temp
-11 -11 -11 -11 -10 -11 -11 -11 -11 -11 -10 -11 -11 -11 -11 -11 -11 -12 -14 -14 -14 -13 -13 -14 -14 -14 -13 -13 -13 -13 -12 -13
-12 -11 -11 -11 -10 -11 -11 -11 -11 -11 -11 -11 -11 -11 -11 -11 -11 -12 -13 -14 -14 -14 -13 -14 -14 -14 -13 -13 -13 -13 -13 -13
-13 -12 -11 -10 -12 -12 -12 -11 -11 -11 -12 -11 -11 -11 -11 -11 -11 -12 -13 -14 -14 -14 -13 -14 -14 -13 -14 -13 -13 -13 -13 -13
-15 -12 -11 -11 -12 -12 -12 -12 -12 -12 -12 -11 -11 -11 -11 -11 -11 -13 -14 -14 -14 -14 -14 -14 -13 -13 -14 -13 -13 -13 -13 -13
-16 -14 -13 -12 -12 -13 -12 -12 -12 -12 -12 -12 -11 -11 -11 -11 -11 -12 -14 -14 -14 -14 -14 -14 -14 -14 -14 -13 -13 -13 -13 -13
-17 -15 -14 -14 -13 -13 -13 -13 -13 -13 -12 -12 -12 -12 -12 -11 -12 -12 -14 -14 -14 -14 -14 -14 -14 -14 -14 -13 -13 -14 -13 -13
-16 -17 -16 -15 -15 -14 -14 -13 -13 -13 -13 -12 -12 -12 -12 -11 -12 -13 -14 -14 -14 -14 -14 -14 -14 -14 -14 -13 -13 -15 -14 -13
-18 -18 -17 -17 -16 -15 -14 -14 -13 -13 -13 -12 -12 -12 -12 -11 -12 -13 -15 -14 -14 -14 -14 -14 -14 -14 -14 -14 -14 -14 -13 -12
-18 -18 -18 -17 -17 -16 -15 -14 -14 -13 -13 -13 -12 -12 -12 -12 -12 -13 -14 -14 -14 -15 -14 -14 -14 -14 -14 -13 -13 -14 -13 -12
-18 -19 -18 -18 -17 -16 -16 -15 -14 -14 -13 -13 -13 -12 -12 -12 -12 -13 -14 -14 -14 -15 -14 -14 -14 -14 -14 -13 -13 -13 -12 -12
-19 -19 -18 -19 -18 -17 -17 -16 -15 -14 -14 -13 -13 -13 -12 -12 -12 -13 -14 -14 -15 -15 -15 -14 -14 -14 -14 -13 -14 -13 -12 -12
-19 -18 -19 -18 -18 -17 -17 -16 -16 -15 -14 -14 -13 -13 -13 -12 -13 -13 -14 -14 -15 -14 -14 -14 -14 -14 -14 -14 -14 -14 -13 -12
-20 -20 -20 -19 -18 -17 -17 -17 -16 -15 -15 -15 -14 -13 -13 -12 -13 -13 -14 -14 -14 -14 -14 -14 -14 -14 -14 -14 -14 -14 -13 -12
-20 -20 -20 -19 -18 -17 -17 -16 -16 -15 -15 -15 -14 -13 -13 -13 -13 -13 -14 -14 -15 -14 -14 -14 -14 -14 -14 -14 -14 -14 -14 -13
-21 -21 -21 -19 -18 -18 -17 -17 -16 -15 -15 -15 -14 -14 -13 -13 -13 -13 -14 -14 -15 -14 -14 -14 -14 -15 -14 -14 -14 -14 -14 -14
-22 -21 -20 -19 -19 -18 -17 -17 -16 -16 -15 -14 -14 -13 -13 -13 -13 -13 -13 -14 -14 -14 -14 -14 -14 -15 -14 -14 -14 -14 -14 -14
-22 -21 -20 -20 -19 -18 -17 -16 -16 -16 -15 -14 -15 -14 -13 -13 -13 -13 -13 -14 -14 -15 -14 -14 -14 -15 -14 -14 -14 -14 -14 -14
-22 -21 -21 -20 -19 -19 -18 -17 -16 -16 -15 -15 -14 -14 -13 -13 -13 -13 -13 -14 -14 -15 -15 -14 -15 -15 -14 -14 -14 -14 -14 -14
-22 -21 -20 -20 -19 -19 -18 -17 -16 -16 -15 -15 -14 -14 -13 -13 -13 -13 -13 -14 -15 -15 -15 -14 -15 -15 -14 -14 -14 -14 -15 -14